Time,TemperatureF,DewpointF,PressureIn,WindDirection,WindDirectionDegrees,WindSpeedMPH,WindSpeedGustMPH,Humidity,HourlyPrecipIn,Conditions,Clouds,dailyrainin,SoftwareType,DateUTC
2013-04-30 00:00:00,51.1,39.4,30.25,North,360,2.0,3.0,64,0.00,,---,0.00,VWS V14.01,2013-04-30 04:00:00,
2013-04-30 00:01:00,51.1,39.4,30.25,North,8,2.0,3.0,64,0.00,,---,0.00,VWS V14.01,2013-04-30 04:01:00,
2013-04-30 00:02:00,51.1,39.0,30.25,North,1,1.0,3.0,63,0.00,,---,0.00,VWS V14.01,2013-04-30 04:02:00,
2013-04-30 00:06:00,51.2,39.0,30.25,North,1,1.0,3.0,63,0.00,,---,0.00,VWS V14.01,2013-04-30 04:06:00,
2013-04-30 00:07:00,51.1,39.0,30.25,North,1,1.0,3.0,63,0.00,,---,0.00,VWS V14.01,2013-04-30 04:07:00,
2013-04-30 00:08:00,51.2,39.0,30.25,North,1,2.0,3.0,63,0.00,,---,0.00,VWS V14.01,2013-04-30 04:08:00,
2013-04-30 00:12:00,51.2,39.0,30.25,North,351,2.0,3.0,63,0.00,,---,0.00,VWS V14.01,2013-04-30 04:12:00,
2013-04-30 00:13:00,51.2,39.0,30.25,North,352,2.0,3.0,63,0.00,,---,0.00,VWS V14.01,2013-04-30 04:13:00,
2013-04-30 00:15:00,51.2,39.0,30.25,North,352,1.0,3.0,63,0.00,,---,0.00,VWS V14.01,2013-04-30 04:15:00,
2013-04-30 00:17:00,51.2,39.5,30.25,North,353,1.0,3.0,64,0.00,,---,0.00,VWS V14.01,2013-04-30 04:17:00,
2013-04-30 00:18:00,51.2,39.5,30.25,North,351,1.0,3.0,64,0.00,,---,0.00,VWS V14.01,2013-04-30 04:18:00,
2013-04-30 00:20:00,51.2,39.8,30.25,NNW,340,1.0,3.0,65,0.00,,---,0.00,VWS V14.01,2013-04-30 04:20:00,
2013-04-30 00:23:00,51.2,39.8,30.25,NNW,340,0.0,3.0,65,0.00,,---,0.00,VWS V14.01,2013-04-30 04:23:00,
2013-04-30 00:24:00,51.2,39.8,30.25,NNW,340,1.0,3.0,65,0.00,,---,0.00,VWS V14.01,2013-04-30 04:24:00,
2013-04-30 00:25:00,51.2,39.8,30.25,NNW,340,1.0,3.0,65,0.00,,---,0.00,VWS V14.01,2013-04-30 04:25:00,
2013-04-30 00:26:00,51.2,39.8,30.25,NNW,340,1.0,3.0,65,0.00,,---,0.00,VWS V14.01,2013-04-30 04:26:00,
2013-04-30 00:28:00,51.2,39.8,30.25,NNW,340,0.0,3.0,65,0.00,,---,0.00,VWS V14.01,2013-04-30 04:28:00,
2013-04-30 00:29:00,51.2,39.8,30.25,NNW,340,0.0,3.0,65,0.00,,---,0.00,VWS V14.01,2013-04-30 04:29:00,
2013-04-30 00:30:00,51.2,39.8,30.25,NNW,340,0.0,3.0,65,0.00,,---,0.00,VWS V14.01,2013-04-30 04:30:00,
2013-04-30 00:32:00,51.2,40.2,30.25,NNW,340,0.0,1.0,66,0.00,,---,0.00,VWS V14.01,2013-04-30 04:32:00,
2013-04-30 00:34:00,51.2,40.2,30.25,NNW,340,0.0,1.0,66,0.00,,---,0.00,VWS V14.01,2013-04-30 04:34:00,
2013-04-30 00:35:00,51.2,40.2,30.25,NNW,340,0.0,1.0,66,0.00,,---,0.00,VWS V14.01,2013-04-30 04:35:00,
2013-04-30 00:36:00,51.2,40.2,30.25,NNW,340,0.0,1.0,66,0.00,,---,0.00,VWS V14.01,2013-04-30 04:36:00,
2013-04-30 00:38:00,51.1,40.2,30.25,NNW,340,0.0,1.0,66,0.00,,---,0.00,VWS V14.01,2013-04-30 04:38:00,
2013-04-30 00:40:00,51.1,40.2,30.25,NNW,340,1.0,1.0,66,0.00,,---,0.00,VWS V14.01,2013-04-30 04:40:00,
2013-04-30 00:41:00,51.1,40.2,30.25,North,349,1.0,1.0,66,0.00,,---,0.00,VWS V14.01,2013-04-30 04:41:00,
2013-04-30 00:45:00,51.2,40.2,30.25,NNW,348,1.0,2.0,66,0.00,,---,0.00,VWS V14.01,2013-04-30 04:45:00,
2013-04-30 00:46:00,51.2,40.6,30.25,North,349,0.0,2.0,67,0.00,,---,0.00,VWS V14.01,2013-04-30 04:46:00,
2013-04-30 00:47:00,51.2,40.6,30.25,North,349,0.0,2.0,67,0.00,,---,0.00,VWS V14.01,2013-04-30 04:47:00,
2013-04-30 00:51:00,51.2,40.6,30.25,North,350,1.0,2.0,67,0.00,,---,0.00,VWS V14.01,2013-04-30 04:51:00,
2013-04-30 00:52:00,51.2,40.6,30.25,North,350,0.0,2.0,67,0.00,,---,0.00,VWS V14.01,2013-04-30 04:52:00,
2013-04-30 00:56:00,51.2,40.6,30.25,NNW,345,2.0,2.0,67,0.00,,---,0.00,VWS V14.01,2013-04-30 04:56:00,
2013-04-30 00:57:00,51.2,40.6,30.25,NNW,345,1.0,2.0,67,0.00,,---,0.00,VWS V14.01,2013-04-30 04:57:00,
2013-04-30 00:59:00,51.2,40.6,30.25,North,355,1.0,2.0,67,0.00,,---,0.00,VWS V14.01,2013-04-30 04:59:00,
2013-04-30 01:01:00,51.2,40.6,30.25,North,353,1.0,1.0,67,0.00,,---,0.00,VWS V14.01,2013-04-30 05:01:00,
2013-04-30 01:03:00,51.1,40.9,30.25,North,354,0.0,1.0,68,0.00,,---,0.00,VWS V14.01,2013-04-30 05:03:00,
2013-04-30 01:05:00,51.1,40.5,30.25,North,353,0.0,2.0,67,0.00,,---,0.00,VWS V14.01,2013-04-30 05:05:00,
2013-04-30 01:06:00,51.1,40.9,30.25,North,353,2.0,2.0,68,0.00,,---,0.00,VWS V14.01,2013-04-30 05:06:00,
2013-04-30 01:08:00,51.1,40.9,30.25,North,353,1.0,2.0,68,0.00,,---,0.00,VWS V14.01,2013-04-30 05:08:00,
2013-04-30 01:11:00,51.1,40.9,30.25,North,353,1.0,2.0,68,0.00,,---,0.00,VWS V14.01,2013-04-30 05:11:00,
2013-04-30 01:12:00,51.1,41.3,30.25,North,353,1.0,2.0,69,0.00,,---,0.00,VWS V14.01,2013-04-30 05:12:00,
2013-04-30 01:13:00,51.1,40.9,30.25,North,353,1.0,2.0,68,0.00,,---,0.00,VWS V14.01,2013-04-30 05:13:00,
2013-04-30 01:14:00,51.1,40.9,30.25,North,353,0.0,2.0,68,0.00,,---,0.00,VWS V14.01,2013-04-30 05:14:00,
2013-04-30 01:16:00,51.1,41.3,30.25,North,353,0.0,2.0,69,0.00,,---,0.00,VWS V14.01,2013-04-30 05:16:00,
2013-04-30 01:17:00,51.0,41.2,30.25,North,353,0.0,2.0,69,0.00,,---,0.00,VWS V14.01,2013-04-30 05:17:00,
2013-04-30 01:19:00,51.0,41.2,30.25,North,353,0.0,2.0,69,0.00,,---,0.00,VWS V14.01,2013-04-30 05:19:00,
2013-04-30 01:20:00,51.0,41.2,30.25,North,353,0.0,2.0,69,0.00,,---,0.00,VWS V14.01,2013-04-30 05:20:00,
2013-04-30 01:22:00,51.0,41.2,30.25,North,353,1.0,2.0,69,0.00,,---,0.00,VWS V14.01,2013-04-30 05:22:00,
2013-04-30 01:23:00,51.0,41.2,30.25,North,353,0.0,2.0,69,0.00,,---,0.00,VWS V14.01,2013-04-30 05:23:00,
2013-04-30 01:24:00,51.0,41.2,30.25,North,353,1.0,2.0,69,0.00,,---,0.00,VWS V14.01,2013-04-30 05:24:00,
2013-04-30 01:25:00,51.0,41.2,30.25,North,353,0.0,2.0,69,0.00,,---,0.00,VWS V14.01,2013-04-30 05:25:00,
2013-04-30 01:28:00,51.0,41.2,30.25,North,353,0.0,2.0,69,0.00,,---,0.00,VWS V14.01,2013-04-30 05:28:00,
2013-04-30 01:30:00,51.0,41.2,30.25,North,353,0.0,0.0,69,0.00,,---,0.00,VWS V14.01,2013-04-30 05:30:00,
2013-04-30 01:33:00,51.0,41.6,30.25,North,353,0.0,0.0,70,0.00,,---,0.00,VWS V14.01,2013-04-30 05:33:00,
2013-04-30 01:34:00,50.9,41.5,30.25,North,353,0.0,1.0,70,0.00,,---,0.00,VWS V14.01,2013-04-30 05:34:00,
2013-04-30 01:35:00,51.0,41.6,30.25,North,353,0.0,1.0,70,0.00,,---,0.00,VWS V14.01,2013-04-30 05:35:00,
2013-04-30 01:36:00,50.9,41.5,30.25,North,353,0.0,1.0,70,0.00,,---,0.00,VWS V14.01,2013-04-30 05:36:00,
2013-04-30 01:39:00,50.9,41.8,30.25,North,353,0.0,1.0,71,0.00,,---,0.00,VWS V14.01,2013-04-30 05:39:00,
2013-04-30 01:41:00,51.0,41.9,30.25,North,353,0.0,1.0,71,0.00,,---,0.00,VWS V14.01,2013-04-30 05:41:00,
2013-04-30 01:42:00,51.0,41.9,30.25,North,353,0.0,1.0,71,0.00,,---,0.00,VWS V14.01,2013-04-30 05:42:00,
2013-04-30 01:43:00,51.0,41.9,30.25,North,353,0.0,1.0,71,0.00,,---,0.00,VWS V14.01,2013-04-30 05:43:00,
2013-04-30 01:45:00,51.0,41.9,30.25,North,353,0.0,1.0,71,0.00,,---,0.00,VWS V14.01,2013-04-30 05:45:00,
2013-04-30 01:46:00,51.0,41.9,30.25,North,353,0.0,1.0,71,0.00,,---,0.00,VWS V14.01,2013-04-30 05:46:00,
2013-04-30 01:47:00,51.0,41.9,30.25,North,353,0.0,1.0,71,0.00,,---,0.00,VWS V14.01,2013-04-30 05:47:00,
2013-04-30 01:48:00,51.0,41.9,30.25,North,353,0.0,1.0,71,0.00,,---,0.00,VWS V14.01,2013-04-30 05:48:00,
2013-04-30 01:50:00,51.0,41.9,30.25,North,353,0.0,1.0,71,0.00,,---,0.00,VWS V14.01,2013-04-30 05:50:00,
2013-04-30 01:51:00,51.0,41.9,30.25,North,353,0.0,1.0,71,0.00,,---,0.00,VWS V14.01,2013-04-30 05:51:00,
2013-04-30 01:52:00,51.0,41.9,30.25,North,353,0.0,1.0,71,0.00,,---,0.00,VWS V14.01,2013-04-30 05:52:00,
2013-04-30 01:53:00,51.0,41.9,30.25,North,353,0.0,1.0,71,0.00,,---,0.00,VWS V14.01,2013-04-30 05:53:00,
2013-04-30 01:56:00,51.0,41.9,30.25,North,353,0.0,1.0,71,0.00,,---,0.00,VWS V14.01,2013-04-30 05:56:00,
2013-04-30 01:57:00,51.0,41.9,30.25,North,353,1.0,1.0,71,0.00,,---,0.00,VWS V14.01,2013-04-30 05:57:00,
2013-04-30 01:58:00,51.0,41.9,30.25,North,353,0.0,1.0,71,0.00,,---,0.00,VWS V14.01,2013-04-30 05:58:00,
2013-04-30 01:59:00,50.9,41.5,30.25,North,353,0.0,1.0,70,0.00,,---,0.00,VWS V14.01,2013-04-30 05:59:00,
2013-04-30 02:02:00,50.9,41.5,30.25,North,353,1.0,1.0,70,0.00,,---,0.00,VWS V14.01,2013-04-30 06:02:00,
2013-04-30 02:03:00,50.9,41.5,30.24,North,353,0.0,1.0,70,0.00,,---,0.00,VWS V14.01,2013-04-30 06:03:00,
2013-04-30 02:04:00,50.9,41.5,30.25,North,353,0.0,1.0,70,0.00,,---,0.00,VWS V14.01,2013-04-30 06:04:00,
2013-04-30 02:05:00,50.9,41.5,30.25,North,353,0.0,1.0,70,0.00,,---,0.00,VWS V14.01,2013-04-30 06:05:00,
2013-04-30 02:08:00,50.9,41.5,30.24,North,353,0.0,1.0,70,0.00,,---,0.00,VWS V14.01,2013-04-30 06:08:00,
2013-04-30 02:09:00,50.9,41.5,30.25,North,353,0.0,1.0,70,0.00,,---,0.00,VWS V14.01,2013-04-30 06:09:00,
2013-04-30 02:10:00,50.9,41.5,30.24,North,353,0.0,1.0,70,0.00,,---,0.00,VWS V14.01,2013-04-30 06:10:00,
2013-04-30 02:11:00,50.8,41.4,30.24,North,353,0.0,1.0,70,0.00,,---,0.00,VWS V14.01,2013-04-30 06:11:00,
2013-04-30 02:13:00,50.8,41.4,30.24,North,353,0.0,1.0,70,0.00,,---,0.00,VWS V14.01,2013-04-30 06:13:00,
2013-04-30 02:15:00,50.8,41.4,30.24,North,353,0.0,1.0,70,0.00,,---,0.00,VWS V14.01,2013-04-30 06:15:00,
2013-04-30 02:16:00,50.8,41.8,30.24,North,353,0.0,1.0,71,0.00,,---,0.00,VWS V14.01,2013-04-30 06:16:00,
2013-04-30 02:18:00,50.8,41.8,30.24,North,353,0.0,1.0,71,0.00,,---,0.00,VWS V14.01,2013-04-30 06:18:00,
2013-04-30 02:19:00,50.8,41.8,30.24,North,351,1.0,1.0,71,0.00,,---,0.00,VWS V14.01,2013-04-30 06:19:00,
2013-04-30 02:20:00,50.8,41.8,30.24,North,352,0.0,1.0,71,0.00,,---,0.00,VWS V14.01,2013-04-30 06:20:00,
2013-04-30 02:22:00,50.8,41.8,30.25,North,351,0.0,1.0,71,0.00,,---,0.00,VWS V14.01,2013-04-30 06:22:00,
2013-04-30 02:24:00,50.7,41.7,30.25,North,352,0.0,1.0,71,0.00,,---,0.00,VWS V14.01,2013-04-30 06:24:00,
2013-04-30 02:25:00,50.7,41.7,30.24,North,352,0.0,1.0,71,0.00,,---,0.00,VWS V14.01,2013-04-30 06:25:00,
2013-04-30 02:28:00,50.7,41.7,30.25,North,352,1.0,1.0,71,0.00,,---,0.00,VWS V14.01,2013-04-30 06:28:00,
2013-04-30 02:29:00,50.7,41.7,30.24,North,352,0.0,1.0,71,0.00,,---,0.00,VWS V14.01,2013-04-30 06:29:00,
2013-04-30 02:30:00,50.7,42.0,30.25,North,352,0.0,0.0,72,0.00,,---,0.00,VWS V14.01,2013-04-30 06:30:00,
2013-04-30 02:31:00,50.7,42.0,30.25,North,352,0.0,0.0,72,0.00,,---,0.00,VWS V14.01,2013-04-30 06:31:00,
2013-04-30 02:33:00,50.6,41.9,30.25,North,351,0.0,0.0,72,0.00,,---,0.00,VWS V14.01,2013-04-30 06:33:00,
2013-04-30 02:35:00,50.6,41.9,30.24,North,352,0.0,0.0,72,0.00,,---,0.00,VWS V14.01,2013-04-30 06:35:00,
2013-04-30 02:36:00,50.6,41.9,30.24,North,352,0.0,0.0,72,0.00,,---,0.00,VWS V14.01,2013-04-30 06:36:00,
2013-04-30 02:38:00,50.6,41.9,30.25,North,352,0.0,1.0,72,0.00,,---,0.00,VWS V14.01,2013-04-30 06:38:00,
2013-04-30 02:40:00,50.6,41.9,30.25,North,352,0.0,1.0,72,0.00,,---,0.00,VWS V14.01,2013-04-30 06:40:00,
2013-04-30 02:43:00,50.5,41.8,30.25,North,352,0.0,1.0,72,0.00,,---,0.00,VWS V14.01,2013-04-30 06:43:00,
2013-04-30 02:45:00,50.4,41.7,30.25,North,352,0.0,1.0,72,0.00,,---,0.00,VWS V14.01,2013-04-30 06:45:00,
2013-04-30 02:46:00,50.4,42.1,30.25,North,352,0.0,1.0,73,0.00,,---,0.00,VWS V14.01,2013-04-30 06:46:00,
2013-04-30 02:49:00,50.3,42.0,30.25,North,352,0.0,1.0,73,0.00,,---,0.00,VWS V14.01,2013-04-30 06:49:00,
2013-04-30 02:50:00,50.3,42.0,30.25,North,352,0.0,1.0,73,0.00,,---,0.00,VWS V14.01,2013-04-30 06:50:00,
2013-04-30 02:51:00,50.2,41.9,30.25,North,352,0.0,1.0,73,0.00,,---,0.00,VWS V14.01,2013-04-30 06:51:00,
2013-04-30 02:52:00,50.2,42.2,30.25,North,352,0.0,1.0,74,0.00,,---,0.00,VWS V14.01,2013-04-30 06:52:00,
2013-04-30 02:55:00,50.1,42.2,30.25,North,351,0.0,1.0,74,0.00,,---,0.00,VWS V14.01,2013-04-30 06:55:00,
2013-04-30 02:56:00,50.1,42.2,30.25,North,351,0.0,1.0,74,0.00,,---,0.00,VWS V14.01,2013-04-30 06:56:00,
2013-04-30 02:57:00,50.0,42.0,30.25,North,352,0.0,1.0,74,0.00,,---,0.00,VWS V14.01,2013-04-30 06:57:00,
2013-04-30 03:00:00,49.9,42.0,30.25,North,352,0.0,1.0,74,0.00,,---,0.00,VWS V14.01,2013-04-30 07:00:00,
2013-04-30 03:01:00,49.9,42.0,30.25,North,352,0.0,0.0,74,0.00,,---,0.00,VWS V14.01,2013-04-30 07:01:00,
2013-04-30 03:03:00,49.8,41.9,30.25,North,352,1.0,1.0,74,0.00,,---,0.00,VWS V14.01,2013-04-30 07:03:00,
2013-04-30 03:04:00,49.8,41.9,30.25,North,351,2.0,2.0,74,0.00,,---,0.00,VWS V14.01,2013-04-30 07:04:00,
2013-04-30 03:06:00,49.7,41.8,30.25,North,352,2.0,3.0,74,0.00,,---,0.00,VWS V14.01,2013-04-30 07:06:00,
2013-04-30 03:07:00,49.7,41.8,30.25,North,352,1.0,3.0,74,0.00,,---,0.00,VWS V14.01,2013-04-30 07:07:00,
2013-04-30 03:08:00,49.6,41.7,30.25,North,350,1.0,3.0,74,0.00,,---,0.00,VWS V14.01,2013-04-30 07:08:00,
2013-04-30 03:11:00,49.4,41.5,30.25,North,350,1.0,3.0,74,0.00,,---,0.00,VWS V14.01,2013-04-30 07:11:00,
2013-04-30 03:12:00,49.3,41.4,30.25,North,9,4.0,4.0,74,0.00,,---,0.00,VWS V14.01,2013-04-30 07:12:00,
2013-04-30 03:13:00,49.3,41.7,30.25,North,9,3.0,4.0,75,0.00,,---,0.00,VWS V14.01,2013-04-30 07:13:00,
2013-04-30 03:16:00,49.2,41.6,30.25,NW,316,1.0,4.0,75,0.00,,---,0.00,VWS V14.01,2013-04-30 07:16:00,
2013-04-30 03:17:00,49.2,41.6,30.25,NW,319,0.0,4.0,75,0.00,,---,0.00,VWS V14.01,2013-04-30 07:17:00,
2013-04-30 03:18:00,49.1,41.5,30.25,NW,319,0.0,4.0,75,0.00,,---,0.00,VWS V14.01,2013-04-30 07:18:00,
2013-04-30 03:19:00,49.0,41.4,30.25,NNW,348,1.0,4.0,75,0.00,,---,0.00,VWS V14.01,2013-04-30 07:19:00,
2013-04-30 03:22:00,49.0,41.8,30.25,North,6,1.0,4.0,76,0.00,,---,0.00,VWS V14.01,2013-04-30 07:22:00,
2013-04-30 03:24:00,49.0,41.8,30.25,NNW,348,1.0,4.0,76,0.00,,---,0.00,VWS V14.01,2013-04-30 07:24:00,
2013-04-30 03:25:00,48.9,41.7,30.25,NNW,348,1.0,4.0,76,0.00,,---,0.00,VWS V14.01,2013-04-30 07:25:00,
2013-04-30 03:27:00,48.8,41.6,30.25,North,350,3.0,4.0,76,0.00,,---,0.00,VWS V14.01,2013-04-30 07:27:00,
2013-04-30 03:28:00,48.7,41.5,30.25,North,353,3.0,4.0,76,0.00,,---,0.00,VWS V14.01,2013-04-30 07:28:00,
2013-04-30 03:30:00,48.6,41.4,30.25,NNE,13,2.0,4.0,76,0.00,,---,0.00,VWS V14.01,2013-04-30 07:30:00,
2013-04-30 03:33:00,48.3,41.1,30.25,NNW,347,1.0,2.0,76,0.00,,---,0.00,VWS V14.01,2013-04-30 07:33:00,
2013-04-30 03:35:00,48.2,41.0,30.25,North,349,1.0,2.0,76,0.00,,---,0.00,VWS V14.01,2013-04-30 07:35:00,
2013-04-30 03:36:00,48.2,41.0,30.25,North,350,1.0,2.0,76,0.00,,---,0.00,VWS V14.01,2013-04-30 07:36:00,
2013-04-30 03:38:00,48.0,41.2,30.25,North,350,1.0,2.0,77,0.00,,---,0.00,VWS V14.01,2013-04-30 07:38:00,
2013-04-30 03:39:00,48.0,41.2,30.25,North,349,0.0,2.0,77,0.00,,---,0.00,VWS V14.01,2013-04-30 07:39:00,
2013-04-30 03:40:00,47.9,41.0,30.25,North,349,1.0,2.0,77,0.00,,---,0.00,VWS V14.01,2013-04-30 07:40:00,
2013-04-30 03:41:00,47.9,41.0,30.25,North,350,0.0,2.0,77,0.00,,---,0.00,VWS V14.01,2013-04-30 07:41:00,
2013-04-30 03:44:00,47.7,40.8,30.25,North,350,1.0,2.0,77,0.00,,---,0.00,VWS V14.01,2013-04-30 07:44:00,
2013-04-30 03:45:00,47.6,41.1,30.25,North,349,1.0,2.0,78,0.00,,---,0.00,VWS V14.01,2013-04-30 07:45:00,
2013-04-30 03:46:00,47.6,41.1,30.25,North,350,1.0,2.0,78,0.00,,---,0.00,VWS V14.01,2013-04-30 07:46:00,
2013-04-30 03:49:00,47.5,41.3,30.25,North,349,1.0,2.0,79,0.00,,---,0.00,VWS V14.01,2013-04-30 07:49:00,
2013-04-30 03:50:00,47.4,41.2,30.25,NNW,348,1.0,2.0,79,0.00,,---,0.00,VWS V14.01,2013-04-30 07:50:00,
2013-04-30 03:51:00,47.3,41.1,30.25,North,349,1.0,2.0,79,0.00,,---,0.00,VWS V14.01,2013-04-30 07:51:00,
2013-04-30 03:52:00,47.3,41.1,30.25,NNW,348,1.0,2.0,79,0.00,,---,0.00,VWS V14.01,2013-04-30 07:52:00,
2013-04-30 03:54:00,47.2,41.4,30.25,NNW,337,1.0,2.0,80,0.00,,---,0.00,VWS V14.01,2013-04-30 07:54:00,
2013-04-30 03:56:00,47.2,41.4,30.25,NNW,338,1.0,2.0,80,0.00,,---,0.00,VWS V14.01,2013-04-30 07:56:00,
2013-04-30 03:57:00,47.2,41.4,30.25,NNW,337,1.0,2.0,80,0.00,,---,0.00,VWS V14.01,2013-04-30 07:57:00,
2013-04-30 03:58:00,47.2,41.4,30.25,North,360,1.0,2.0,80,0.00,,---,0.00,VWS V14.01,2013-04-30 07:58:00,
2013-04-30 03:59:00,47.2,41.4,30.25,North,360,0.0,2.0,80,0.00,,---,0.00,VWS V14.01,2013-04-30 07:59:00,
2013-04-30 04:02:00,47.1,41.3,30.26,North,359,0.0,1.0,80,0.00,,---,0.00,VWS V14.01,2013-04-30 08:02:00,
2013-04-30 04:03:00,47.0,40.8,30.26,North,359,1.0,1.0,79,0.00,,---,0.00,VWS V14.01,2013-04-30 08:03:00,
2013-04-30 04:05:00,46.8,40.6,30.26,North,359,1.0,1.0,79,0.00,,---,0.00,VWS V14.01,2013-04-30 08:05:00,
2013-04-30 04:07:00,46.6,40.1,30.26,North,359,1.0,2.0,78,0.00,,---,0.00,VWS V14.01,2013-04-30 08:07:00,
2013-04-30 04:09:00,46.4,39.9,30.26,North,359,1.0,2.0,78,0.00,,---,0.00,VWS V14.01,2013-04-30 08:09:00,
2013-04-30 04:10:00,46.3,40.2,30.26,North,354,1.0,2.0,79,0.00,,---,0.00,VWS V14.01,2013-04-30 08:10:00,
2013-04-30 04:14:00,45.8,40.0,30.26,NNW,338,1.0,2.0,80,0.00,,---,0.00,VWS V14.01,2013-04-30 08:14:00,
2013-04-30 04:15:00,45.8,40.0,30.26,NNW,338,1.0,2.0,80,0.00,,---,0.00,VWS V14.01,2013-04-30 08:15:00,
2013-04-30 04:16:00,45.7,39.9,30.26,NNW,338,1.0,2.0,80,0.00,,---,0.00,VWS V14.01,2013-04-30 08:16:00,
2013-04-30 04:20:00,45.6,39.8,30.26,NNW,338,0.0,2.0,80,0.00,,---,0.00,VWS V14.01,2013-04-30 08:20:00,
2013-04-30 04:21:00,45.5,39.7,30.26,NNW,338,0.0,2.0,80,0.00,,---,0.00,VWS V14.01,2013-04-30 08:21:00,
2013-04-30 04:22:00,45.5,39.7,30.26,NNW,338,0.0,2.0,80,0.00,,---,0.00,VWS V14.01,2013-04-30 08:22:00,
2013-04-30 04:23:00,45.5,39.7,30.26,NNW,338,0.0,2.0,80,0.00,,---,0.00,VWS V14.01,2013-04-30 08:23:00,
2013-04-30 04:26:00,45.3,39.8,30.26,NNW,338,1.0,2.0,81,0.00,,---,0.00,VWS V14.01,2013-04-30 08:26:00,
2013-04-30 04:27:00,45.3,39.5,30.26,NNW,337,1.0,2.0,80,0.00,,---,0.00,VWS V14.01,2013-04-30 08:27:00,
2013-04-30 04:29:00,45.1,39.6,30.26,NNW,333,2.0,2.0,81,0.00,,---,0.00,VWS V14.01,2013-04-30 08:29:00,
2013-04-30 04:31:00,44.9,39.4,30.26,NNW,332,3.0,3.0,81,0.00,,---,0.00,VWS V14.01,2013-04-30 08:31:00,
2013-04-30 04:32:00,44.9,39.4,30.26,NNW,328,2.0,3.0,81,0.00,,---,0.00,VWS V14.01,2013-04-30 08:32:00,
2013-04-30 04:33:00,44.8,39.3,30.26,NNW,328,2.0,3.0,81,0.00,,---,0.00,VWS V14.01,2013-04-30 08:33:00,
2013-04-30 04:35:00,44.8,39.3,30.26,NNW,328,1.0,3.0,81,0.00,,---,0.00,VWS V14.01,2013-04-30 08:35:00,
2013-04-30 04:36:00,44.8,39.3,30.26,NNW,328,1.0,3.0,81,0.00,,---,0.00,VWS V14.01,2013-04-30 08:36:00,
2013-04-30 04:37:00,44.7,39.2,30.26,NNW,328,0.0,3.0,81,0.00,,---,0.00,VWS V14.01,2013-04-30 08:37:00,
2013-04-30 04:38:00,44.7,39.2,30.26,NNW,328,0.0,3.0,81,0.00,,---,0.00,VWS V14.01,2013-04-30 08:38:00,
2013-04-30 04:41:00,44.6,39.1,30.27,NW,322,0.0,3.0,81,0.00,,---,0.00,VWS V14.01,2013-04-30 08:41:00,
2013-04-30 04:42:00,44.6,39.1,30.27,NW,321,0.0,3.0,81,0.00,,---,0.00,VWS V14.01,2013-04-30 08:42:00,
2013-04-30 04:43:00,44.5,39.0,30.27,NW,322,0.0,3.0,81,0.00,,---,0.00,VWS V14.01,2013-04-30 08:43:00,
2013-04-30 04:44:00,44.5,39.0,30.27,NW,322,0.0,3.0,81,0.00,,---,0.00,VWS V14.01,2013-04-30 08:44:00,
2013-04-30 04:46:00,44.4,38.9,30.27,NW,322,1.0,3.0,81,0.00,,---,0.00,VWS V14.01,2013-04-30 08:46:00,
2013-04-30 04:48:00,44.3,39.2,30.27,NW,321,1.0,3.0,82,0.00,,---,0.00,VWS V14.01,2013-04-30 08:48:00,
2013-04-30 04:49:00,44.2,39.1,30.27,NW,322,1.0,3.0,82,0.00,,---,0.00,VWS V14.01,2013-04-30 08:49:00,
2013-04-30 04:51:00,44.0,38.9,30.27,NW,322,1.0,3.0,82,0.00,,---,0.00,VWS V14.01,2013-04-30 08:51:00,
2013-04-30 04:53:00,43.9,38.8,30.27,NW,321,1.0,3.0,82,0.00,,---,0.00,VWS V14.01,2013-04-30 08:53:00,
2013-04-30 04:54:00,43.9,38.8,30.27,NW,322,1.0,3.0,82,0.00,,---,0.00,VWS V14.01,2013-04-30 08:54:00,
2013-04-30 04:55:00,43.8,39.0,30.27,NW,322,1.0,3.0,83,0.00,,---,0.00,VWS V14.01,2013-04-30 08:55:00,
2013-04-30 04:57:00,43.8,39.0,30.27,NW,321,2.0,3.0,83,0.00,,---,0.00,VWS V14.01,2013-04-30 08:57:00,
2013-04-30 04:59:00,43.8,39.3,30.27,NW,321,2.0,3.0,84,0.00,,---,0.00,VWS V14.01,2013-04-30 08:59:00,
2013-04-30 05:01:00,43.8,39.3,30.27,NW,320,2.0,2.0,84,0.00,,---,0.00,VWS V14.01,2013-04-30 09:01:00,
2013-04-30 05:02:00,43.8,39.3,30.27,NW,320,1.0,2.0,84,0.00,,---,0.00,VWS V14.01,2013-04-30 09:02:00,
2013-04-30 05:04:00,43.8,39.0,30.27,NW,320,1.0,2.0,83,0.00,,---,0.00,VWS V14.01,2013-04-30 09:04:00,
2013-04-30 05:05:00,43.8,39.0,30.27,NW,321,1.0,2.0,83,0.00,,---,0.00,VWS V14.01,2013-04-30 09:05:00,
2013-04-30 05:07:00,43.8,39.0,30.27,NW,320,1.0,2.0,83,0.00,,---,0.00,VWS V14.01,2013-04-30 09:07:00,
2013-04-30 05:08:00,43.8,39.0,30.27,NW,321,1.0,2.0,83,0.00,,---,0.00,VWS V14.01,2013-04-30 09:08:00,
2013-04-30 05:09:00,43.8,39.0,30.27,NW,320,1.0,2.0,83,0.00,,---,0.00,VWS V14.01,2013-04-30 09:09:00,
2013-04-30 05:10:00,43.8,39.0,30.27,NW,321,1.0,2.0,83,0.00,,---,0.00,VWS V14.01,2013-04-30 09:10:00,
2013-04-30 05:12:00,43.8,39.0,30.27,NW,321,1.0,2.0,83,0.00,,---,0.00,VWS V14.01,2013-04-30 09:12:00,
2013-04-30 05:13:00,43.8,39.0,30.27,NW,320,1.0,2.0,83,0.00,,---,0.00,VWS V14.01,2013-04-30 09:13:00,
2013-04-30 05:14:00,43.8,39.0,30.27,NW,320,1.0,2.0,83,0.00,,---,0.00,VWS V14.01,2013-04-30 09:14:00,
2013-04-30 05:15:00,43.8,39.0,30.27,NW,320,0.0,2.0,83,0.00,,---,0.00,VWS V14.01,2013-04-30 09:15:00,
2013-04-30 05:16:00,43.8,39.0,30.27,NW,321,1.0,2.0,83,0.00,,---,0.00,VWS V14.01,2013-04-30 09:16:00,
2013-04-30 05:18:00,43.8,39.3,30.27,NW,319,1.0,2.0,84,0.00,,---,0.00,VWS V14.01,2013-04-30 09:18:00,
2013-04-30 05:19:00,43.8,39.0,30.28,NW,319,1.0,2.0,83,0.00,,---,0.00,VWS V14.01,2013-04-30 09:19:00,
2013-04-30 05:20:00,43.7,39.2,30.28,NW,319,0.0,2.0,84,0.00,,---,0.00,VWS V14.01,2013-04-30 09:20:00,
2013-04-30 05:21:00,43.7,39.2,30.28,NW,319,0.0,2.0,84,0.00,,---,0.00,VWS V14.01,2013-04-30 09:21:00,
2013-04-30 05:22:00,43.7,39.2,30.27,NW,319,0.0,2.0,84,0.00,,---,0.00,VWS V14.01,2013-04-30 09:22:00,
2013-04-30 05:24:00,43.7,39.2,30.28,NW,319,0.0,2.0,84,0.00,,---,0.00,VWS V14.01,2013-04-30 09:24:00,
2013-04-30 05:25:00,43.7,39.2,30.28,NW,319,0.0,2.0,84,0.00,,---,0.00,VWS V14.01,2013-04-30 09:25:00,
2013-04-30 05:26:00,43.7,39.5,30.28,NW,319,0.0,2.0,85,0.00,,---,0.00,VWS V14.01,2013-04-30 09:26:00,
2013-04-30 05:27:00,43.7,39.5,30.28,NW,319,0.0,2.0,85,0.00,,---,0.00,VWS V14.01,2013-04-30 09:27:00,
2013-04-30 05:30:00,43.7,39.5,30.28,NW,319,0.0,2.0,85,0.00,,---,0.00,VWS V14.01,2013-04-30 09:30:00,
2013-04-30 05:31:00,43.7,39.5,30.28,NW,319,1.0,1.0,85,0.00,,---,0.00,VWS V14.01,2013-04-30 09:31:00,
2013-04-30 05:33:00,43.7,39.8,30.28,NW,319,1.0,1.0,86,0.00,,---,0.00,VWS V14.01,2013-04-30 09:33:00,
2013-04-30 05:35:00,43.7,39.8,30.28,NW,319,1.0,1.0,86,0.00,,---,0.00,VWS V14.01,2013-04-30 09:35:00,
2013-04-30 05:37:00,43.5,39.3,30.28,NW,319,1.0,1.0,85,0.00,,---,0.00,VWS V14.01,2013-04-30 09:37:00,
2013-04-30 05:38:00,43.5,39.3,30.28,NW,319,1.0,1.0,85,0.00,,---,0.00,VWS V14.01,2013-04-30 09:38:00,
2013-04-30 05:40:00,43.5,39.3,30.28,NW,320,2.0,2.0,85,0.00,,---,0.00,VWS V14.01,2013-04-30 09:40:00,
2013-04-30 05:41:00,43.4,39.2,30.28,NW,321,1.0,2.0,85,0.00,,---,0.00,VWS V14.01,2013-04-30 09:41:00,
2013-04-30 05:43:00,43.3,39.4,30.28,NW,321,1.0,2.0,86,0.00,,---,0.00,VWS V14.01,2013-04-30 09:43:00,
2013-04-30 05:44:00,43.3,39.4,30.28,NW,323,2.0,2.0,86,0.00,,---,0.00,VWS V14.01,2013-04-30 09:44:00,
2013-04-30 05:47:00,43.3,39.7,30.28,NW,323,2.0,3.0,87,0.00,,---,0.00,VWS V14.01,2013-04-30 09:47:00,
2013-04-30 05:48:00,43.3,39.7,30.28,NW,321,2.0,3.0,87,0.00,,---,0.00,VWS V14.01,2013-04-30 09:48:00,
2013-04-30 05:49:00,43.3,39.7,30.28,NW,321,2.0,3.0,87,0.00,,---,0.00,VWS V14.01,2013-04-30 09:49:00,
2013-04-30 05:52:00,43.3,39.7,30.28,NW,319,1.0,3.0,87,0.00,,---,0.00,VWS V14.01,2013-04-30 09:52:00,
2013-04-30 05:53:00,43.3,39.7,30.28,NW,319,1.0,3.0,87,0.00,,---,0.00,VWS V14.01,2013-04-30 09:53:00,
2013-04-30 05:54:00,43.3,39.7,30.28,NW,320,0.0,3.0,87,0.00,,---,0.00,VWS V14.01,2013-04-30 09:54:00,
2013-04-30 05:55:00,43.3,39.7,30.28,NW,319,0.0,3.0,87,0.00,,---,0.00,VWS V14.01,2013-04-30 09:55:00,
2013-04-30 05:57:00,43.4,39.8,30.28,NW,319,0.0,3.0,87,0.00,,---,0.00,VWS V14.01,2013-04-30 09:57:00,
2013-04-30 05:59:00,43.4,39.8,30.28,NW,319,0.0,3.0,87,0.00,,---,0.00,VWS V14.01,2013-04-30 09:59:00,
2013-04-30 06:00:00,43.5,39.9,30.28,NW,319,1.0,3.0,87,0.00,,---,0.00,VWS V14.01,2013-04-30 10:00:00,
2013-04-30 06:01:00,43.6,40.3,30.29,NW,320,2.0,2.0,88,0.00,,---,0.00,VWS V14.01,2013-04-30 10:01:00,
2013-04-30 06:03:00,43.7,40.4,30.29,NW,320,2.0,2.0,88,0.00,,---,0.00,VWS V14.01,2013-04-30 10:03:00,
2013-04-30 06:04:00,43.7,40.4,30.29,NW,321,2.0,2.0,88,0.00,,---,0.00,VWS V14.01,2013-04-30 10:04:00,
2013-04-30 06:05:00,43.8,40.2,30.29,NW,323,2.0,2.0,87,0.00,,---,0.00,VWS V14.01,2013-04-30 10:05:00,
2013-04-30 06:06:00,43.8,40.2,30.29,NW,322,2.0,3.0,87,0.00,,---,0.00,VWS V14.01,2013-04-30 10:06:00,
2013-04-30 06:08:00,43.9,40.0,30.29,NW,321,2.0,3.0,86,0.00,,---,0.00,VWS V14.01,2013-04-30 10:08:00,
2013-04-30 06:09:00,43.8,39.9,30.29,NW,321,1.0,3.0,86,0.00,,---,0.00,VWS V14.01,2013-04-30 10:09:00,
2013-04-30 06:11:00,43.9,40.0,30.29,NW,321,1.0,3.0,86,0.00,,---,0.00,VWS V14.01,2013-04-30 10:11:00,
2013-04-30 06:13:00,43.9,40.0,30.29,NW,322,1.0,3.0,86,0.00,,---,0.00,VWS V14.01,2013-04-30 10:13:00,
2013-04-30 06:15:00,43.9,40.0,30.29,NW,321,0.0,3.0,86,0.00,,---,0.00,VWS V14.01,2013-04-30 10:15:00,
2013-04-30 06:16:00,43.9,40.0,30.29,NW,322,0.0,3.0,86,0.00,,---,0.00,VWS V14.01,2013-04-30 10:16:00,
2013-04-30 06:17:00,43.9,40.0,30.29,NW,322,0.0,3.0,86,0.00,,---,0.00,VWS V14.01,2013-04-30 10:17:00,
2013-04-30 06:19:00,44.0,40.1,30.29,NW,321,0.0,3.0,86,0.00,,---,0.00,VWS V14.01,2013-04-30 10:19:00,
2013-04-30 06:20:00,44.1,39.9,30.29,NW,321,0.0,3.0,85,0.00,,---,0.00,VWS V14.01,2013-04-30 10:20:00,
2013-04-30 06:21:00,44.1,39.9,30.29,NW,320,0.0,3.0,85,0.00,,---,0.00,VWS V14.01,2013-04-30 10:21:00,
2013-04-30 06:24:00,44.5,40.3,30.29,NW,320,0.0,3.0,85,0.00,,---,0.00,VWS V14.01,2013-04-30 10:24:00,
2013-04-30 06:26:00,44.9,40.4,30.30,NW,320,0.0,3.0,84,0.00,,---,0.00,VWS V14.01,2013-04-30 10:26:00,
2013-04-30 06:29:00,45.3,40.5,30.30,NW,320,1.0,3.0,83,0.00,,---,0.00,VWS V14.01,2013-04-30 10:29:00,
2013-04-30 06:30:00,45.4,40.5,30.30,NW,321,0.0,3.0,83,0.00,,---,0.00,VWS V14.01,2013-04-30 10:30:00,
2013-04-30 06:31:00,45.5,40.7,30.30,NW,320,0.0,0.0,83,0.00,,---,0.00,VWS V14.01,2013-04-30 10:31:00,
2013-04-30 06:32:00,45.6,40.7,30.30,NW,320,0.0,1.0,83,0.00,,---,0.00,VWS V14.01,2013-04-30 10:32:00,
2013-04-30 06:34:00,45.7,40.5,30.30,NW,320,0.0,1.0,82,0.00,,---,0.00,VWS V14.01,2013-04-30 10:34:00,
2013-04-30 06:35:00,45.8,40.6,30.30,NW,320,1.0,1.0,82,0.00,,---,0.00,VWS V14.01,2013-04-30 10:35:00,
2013-04-30 06:36:00,45.9,40.4,30.30,NW,320,0.0,1.0,81,0.00,,---,0.00,VWS V14.01,2013-04-30 10:36:00,
2013-04-30 06:39:00,46.1,40.6,30.30,NW,323,2.0,2.0,81,0.00,,---,0.00,VWS V14.01,2013-04-30 10:39:00,
2013-04-30 06:40:00,46.2,40.7,30.30,NW,323,3.0,3.0,81,0.00,,---,0.00,VWS V14.01,2013-04-30 10:40:00,
2013-04-30 06:41:00,46.3,40.5,30.30,NW,322,2.0,3.0,80,0.00,,---,0.00,VWS V14.01,2013-04-30 10:41:00,
2013-04-30 06:42:00,46.5,40.7,30.30,NW,321,2.0,3.0,80,0.00,,---,0.00,VWS V14.01,2013-04-30 10:42:00,
2013-04-30 06:45:00,46.6,40.8,30.30,NW,322,2.0,3.0,80,0.00,,---,0.00,VWS V14.01,2013-04-30 10:45:00,
2013-04-30 06:46:00,46.7,40.9,30.30,NW,321,1.0,3.0,80,0.00,,---,0.00,VWS V14.01,2013-04-30 10:46:00,
2013-04-30 06:47:00,46.7,40.9,30.30,NW,321,0.0,3.0,80,0.00,,---,0.00,VWS V14.01,2013-04-30 10:47:00,
2013-04-30 06:48:00,46.8,41.0,30.30,NW,321,2.0,3.0,80,0.00,,---,0.00,VWS V14.01,2013-04-30 10:48:00,
2013-04-30 06:50:00,46.8,41.0,30.30,NW,323,2.0,3.0,80,0.00,,---,0.00,VWS V14.01,2013-04-30 10:50:00,
2013-04-30 06:51:00,46.9,41.1,30.30,NW,322,2.0,3.0,80,0.00,,---,0.00,VWS V14.01,2013-04-30 10:51:00,
2013-04-30 06:52:00,46.9,41.1,30.30,NW,325,2.0,3.0,80,0.00,,---,0.00,VWS V14.01,2013-04-30 10:52:00,
2013-04-30 06:54:00,47.1,41.3,30.30,NW,320,0.0,3.0,80,0.00,,---,0.00,VWS V14.01,2013-04-30 10:54:00,
2013-04-30 06:56:00,47.4,41.5,30.30,NW,319,0.0,3.0,80,0.00,,---,0.00,VWS V14.01,2013-04-30 10:56:00,
2013-04-30 06:57:00,47.4,41.5,30.30,NW,319,0.0,3.0,80,0.00,,---,0.00,VWS V14.01,2013-04-30 10:57:00,
2013-04-30 06:59:00,47.9,42.0,30.30,NW,320,1.0,3.0,80,0.00,,---,0.00,VWS V14.01,2013-04-30 10:59:00,
2013-04-30 07:02:00,48.2,41.7,30.30,NW,321,2.0,3.0,78,0.00,,---,0.00,VWS V14.01,2013-04-30 11:02:00,
2013-04-30 07:04:00,48.3,41.8,30.30,NW,320,0.0,3.0,78,0.00,,---,0.00,VWS V14.01,2013-04-30 11:04:00,
2013-04-30 07:05:00,48.4,41.9,30.30,NW,320,0.0,3.0,78,0.00,,---,0.00,VWS V14.01,2013-04-30 11:05:00,
2013-04-30 07:08:00,48.6,42.1,30.30,NW,319,0.0,3.0,78,0.00,,---,0.00,VWS V14.01,2013-04-30 11:08:00,
2013-04-30 07:09:00,48.8,42.3,30.30,NW,319,0.0,3.0,78,0.00,,---,0.00,VWS V14.01,2013-04-30 11:09:00,
2013-04-30 07:10:00,49.0,42.1,30.31,NW,319,0.0,3.0,77,0.00,,---,0.00,VWS V14.01,2013-04-30 11:10:00,
2013-04-30 07:13:00,49.6,42.4,30.31,NW,319,0.0,3.0,76,0.00,,---,0.00,VWS V14.01,2013-04-30 11:13:00,
2013-04-30 07:14:00,49.7,42.5,30.31,NW,319,1.0,3.0,76,0.00,,---,0.00,VWS V14.01,2013-04-30 11:14:00,
2013-04-30 07:15:00,49.9,42.7,30.31,NW,319,0.0,3.0,76,0.00,,---,0.00,VWS V14.01,2013-04-30 11:15:00,
2013-04-30 07:19:00,50.7,42.7,30.31,NW,319,0.0,3.0,74,0.00,,---,0.00,VWS V14.01,2013-04-30 11:19:00,
2013-04-30 07:20:00,50.8,42.8,30.31,NW,319,1.0,3.0,74,0.00,,---,0.00,VWS V14.01,2013-04-30 11:20:00,
2013-04-30 07:21:00,50.8,42.5,30.31,NW,319,0.0,3.0,73,0.00,,---,0.00,VWS V14.01,2013-04-30 11:21:00,
2013-04-30 07:25:00,51.3,43.0,30.31,NW,319,0.0,3.0,73,0.00,,---,0.00,VWS V14.01,2013-04-30 11:25:00,
2013-04-30 07:26:00,51.3,43.0,30.31,NW,319,0.0,3.0,73,0.00,,---,0.00,VWS V14.01,2013-04-30 11:26:00,
2013-04-30 07:27:00,51.3,43.0,30.31,NW,319,0.0,3.0,73,0.00,,---,0.00,VWS V14.01,2013-04-30 11:27:00,
2013-04-30 07:28:00,51.3,43.0,30.31,NW,319,1.0,3.0,73,0.00,,---,0.00,VWS V14.01,2013-04-30 11:28:00,
2013-04-30 07:31:00,51.1,43.1,30.31,NW,315,1.0,1.0,74,0.00,,---,0.00,VWS V14.01,2013-04-30 11:31:00,
2013-04-30 07:32:00,51.0,43.4,30.31,NW,318,1.0,1.0,75,0.00,,---,0.00,VWS V14.01,2013-04-30 11:32:00,
2013-04-30 07:33:00,50.8,43.2,30.31,NW,318,1.0,1.0,75,0.00,,---,0.00,VWS V14.01,2013-04-30 11:33:00,
2013-04-30 07:34:00,50.6,43.3,30.31,NW,318,1.0,1.0,76,0.00,,---,0.00,VWS V14.01,2013-04-30 11:34:00,
2013-04-30 07:36:00,50.5,43.2,30.31,NW,316,1.0,1.0,76,0.00,,---,0.00,VWS V14.01,2013-04-30 11:36:00,
2013-04-30 07:38:00,50.5,43.2,30.31,NW,316,1.0,1.0,76,0.00,,---,0.00,VWS V14.01,2013-04-30 11:38:00,
2013-04-30 07:39:00,50.5,43.6,30.31,NW,314,1.0,1.0,77,0.00,,---,0.00,VWS V14.01,2013-04-30 11:39:00,
2013-04-30 07:40:00,50.7,43.8,30.32,NW,314,1.0,1.0,77,0.00,,---,0.00,VWS V14.01,2013-04-30 11:40:00,
2013-04-30 07:42:00,50.8,43.5,30.32,NW,315,1.0,1.0,76,0.00,,---,0.00,VWS V14.01,2013-04-30 11:42:00,
2013-04-30 07:44:00,50.9,44.0,30.32,NW,314,1.0,2.0,77,0.00,,---,0.00,VWS V14.01,2013-04-30 11:44:00,
2013-04-30 07:45:00,51.4,44.8,30.32,NW,314,0.0,2.0,78,0.00,,---,0.00,VWS V14.01,2013-04-30 11:45:00,
2013-04-30 07:47:00,52.1,45.5,30.32,NW,314,0.0,2.0,78,0.00,,---,0.00,VWS V14.01,2013-04-30 11:47:00,
2013-04-30 07:49:00,52.8,45.8,30.32,NW,315,0.0,2.0,77,0.00,,---,0.00,VWS V14.01,2013-04-30 11:49:00,
2013-04-30 07:50:00,53.0,45.7,30.32,NW,314,0.0,2.0,76,0.00,,---,0.00,VWS V14.01,2013-04-30 11:50:00,
2013-04-30 07:51:00,53.4,45.7,30.32,NW,314,0.0,2.0,75,0.00,,---,0.00,VWS V14.01,2013-04-30 11:51:00,
2013-04-30 07:52:00,53.8,45.7,30.32,NW,314,0.0,2.0,74,0.00,,---,0.00,VWS V14.01,2013-04-30 11:52:00,
2013-04-30 07:54:00,54.4,45.6,30.32,NW,315,0.0,2.0,72,0.00,,---,0.00,VWS V14.01,2013-04-30 11:54:00,
2013-04-30 07:55:00,54.7,45.9,30.32,NW,315,0.0,2.0,72,0.00,,---,0.00,VWS V14.01,2013-04-30 11:55:00,
2013-04-30 07:56:00,55.0,45.8,30.32,NW,314,0.0,2.0,71,0.00,,---,0.00,VWS V14.01,2013-04-30 11:56:00,
2013-04-30 07:57:00,55.2,45.6,30.32,NW,315,0.0,2.0,70,0.00,,---,0.00,VWS V14.01,2013-04-30 11:57:00,
2013-04-30 07:59:00,55.7,46.1,30.32,NW,315,0.0,2.0,70,0.00,,---,0.00,VWS V14.01,2013-04-30 11:59:00,
2013-04-30 08:00:00,56.1,45.7,30.32,NW,314,0.0,0.0,68,0.00,,---,0.00,VWS V14.01,2013-04-30 12:00:00,
2013-04-30 08:02:00,56.4,46.0,30.32,NW,314,0.0,0.0,68,0.00,,---,0.00,VWS V14.01,2013-04-30 12:02:00,
2013-04-30 08:04:00,56.8,46.0,30.32,NW,314,0.0,0.0,67,0.00,,---,0.00,VWS V14.01,2013-04-30 12:04:00,
2013-04-30 08:05:00,56.8,45.6,30.32,NW,314,0.0,0.0,66,0.00,,---,0.00,VWS V14.01,2013-04-30 12:05:00,
2013-04-30 08:06:00,56.7,45.5,30.32,NW,314,0.0,0.0,66,0.00,,---,0.00,VWS V14.01,2013-04-30 12:06:00,
2013-04-30 08:07:00,56.7,45.9,30.32,NW,315,0.0,0.0,67,0.00,,---,0.00,VWS V14.01,2013-04-30 12:07:00,
2013-04-30 08:09:00,56.8,45.6,30.32,NW,315,0.0,0.0,66,0.00,,---,0.00,VWS V14.01,2013-04-30 12:09:00,
2013-04-30 08:10:00,56.8,45.6,30.32,NW,314,0.0,0.0,66,0.00,,---,0.00,VWS V14.01,2013-04-30 12:10:00,
2013-04-30 08:12:00,56.9,45.7,30.32,NW,315,0.0,0.0,66,0.00,,---,0.00,VWS V14.01,2013-04-30 12:12:00,
2013-04-30 08:15:00,56.8,45.2,30.32,NW,314,0.0,0.0,65,0.00,,---,0.00,VWS V14.01,2013-04-30 12:15:00,
2013-04-30 08:16:00,56.7,45.5,30.32,NW,315,0.0,0.0,66,0.00,,---,0.00,VWS V14.01,2013-04-30 12:16:00,
2013-04-30 08:17:00,56.8,46.0,30.32,NW,314,0.0,0.0,67,0.00,,---,0.00,VWS V14.01,2013-04-30 12:17:00,
2013-04-30 08:21:00,57.9,47.0,30.32,NW,315,0.0,0.0,67,0.00,,---,0.00,VWS V14.01,2013-04-30 12:21:00,
2013-04-30 08:22:00,58.5,47.2,30.32,NW,315,0.0,0.0,66,0.00,,---,0.00,VWS V14.01,2013-04-30 12:22:00,
2013-04-30 08:23:00,58.5,47.2,30.32,NW,314,0.0,0.0,66,0.00,,---,0.00,VWS V14.01,2013-04-30 12:23:00,
2013-04-30 08:27:00,59.6,47.4,30.32,NW,315,0.0,0.0,64,0.00,,---,0.00,VWS V14.01,2013-04-30 12:27:00,
2013-04-30 08:28:00,59.9,47.3,30.32,NW,315,0.0,0.0,63,0.00,,---,0.00,VWS V14.01,2013-04-30 12:28:00,
2013-04-30 08:33:00,59.8,46.3,30.32,NW,314,0.0,0.0,61,0.00,,---,0.00,VWS V14.01,2013-04-30 12:33:00,
2013-04-30 08:34:00,59.8,46.3,30.32,NW,314,0.0,0.0,61,0.00,,---,0.00,VWS V14.01,2013-04-30 12:34:00,
2013-04-30 08:35:00,59.9,46.4,30.32,NW,315,0.0,0.0,61,0.00,,---,0.00,VWS V14.01,2013-04-30 12:35:00,
2013-04-30 08:39:00,61.3,45.0,30.32,NW,314,0.0,0.0,55,0.00,,---,0.00,VWS V14.01,2013-04-30 12:39:00,
2013-04-30 08:40:00,61.5,44.2,30.32,NW,314,0.0,0.0,53,0.00,,---,0.00,VWS V14.01,2013-04-30 12:40:00,
2013-04-30 08:42:00,61.8,46.0,30.32,NW,315,0.0,0.0,56,0.00,,---,0.00,VWS V14.01,2013-04-30 12:42:00,
2013-04-30 08:45:00,61.1,42.3,30.32,NW,314,0.0,0.0,50,0.00,,---,0.00,VWS V14.01,2013-04-30 12:45:00,
2013-04-30 08:47:00,60.6,44.4,30.32,NW,315,0.0,0.0,55,0.00,,---,0.00,VWS V14.01,2013-04-30 12:47:00,
2013-04-30 08:48:00,60.3,40.5,30.32,NW,314,0.0,0.0,48,0.00,,---,0.00,VWS V14.01,2013-04-30 12:48:00,
2013-04-30 08:50:00,59.7,40.0,30.32,NW,314,0.0,0.0,48,0.00,,---,0.00,VWS V14.01,2013-04-30 12:50:00,
2013-04-30 08:51:00,59.6,39.4,30.32,NW,313,0.0,0.0,47,0.00,,---,0.00,VWS V14.01,2013-04-30 12:51:00,
2013-04-30 08:52:00,59.4,39.7,30.32,NW,314,0.0,0.0,48,0.00,,---,0.00,VWS V14.01,2013-04-30 12:52:00,
2013-04-30 08:56:00,59.8,38.4,30.32,NW,313,1.0,1.0,45,0.00,,---,0.00,VWS V14.01,2013-04-30 12:56:00,
2013-04-30 08:57:00,60.1,39.3,30.32,NW,313,1.0,1.0,46,0.00,,---,0.00,VWS V14.01,2013-04-30 12:57:00,
2013-04-30 08:58:00,60.4,40.1,30.32,NW,313,1.0,1.0,47,0.00,,---,0.00,VWS V14.01,2013-04-30 12:58:00,
2013-04-30 09:02:00,62.0,38.7,30.32,NW,314,0.0,1.0,42,0.00,,---,0.00,VWS V14.01,2013-04-30 13:02:00,
2013-04-30 09:03:00,62.4,39.6,30.32,NW,314,0.0,1.0,43,0.00,,---,0.00,VWS V14.01,2013-04-30 13:03:00,
2013-04-30 09:07:00,63.9,42.2,30.32,NW,313,0.0,1.0,45,0.00,,---,0.00,VWS V14.01,2013-04-30 13:07:00,
2013-04-30 09:08:00,64.1,41.2,30.32,NW,313,0.0,1.0,43,0.00,,---,0.00,VWS V14.01,2013-04-30 13:08:00,
2013-04-30 09:09:00,64.2,41.3,30.32,NW,314,0.0,1.0,43,0.00,,---,0.00,VWS V14.01,2013-04-30 13:09:00,
2013-04-30 09:10:00,64.3,39.5,30.32,NW,312,1.0,1.0,40,0.00,,---,0.00,VWS V14.01,2013-04-30 13:10:00,
2013-04-30 09:12:00,64.3,39.5,30.32,NW,312,1.0,1.0,40,0.00,,---,0.00,VWS V14.01,2013-04-30 13:12:00,
2013-04-30 09:13:00,64.1,38.7,30.32,NW,311,2.0,2.0,39,0.00,,---,0.00,VWS V14.01,2013-04-30 13:13:00,
2013-04-30 09:14:00,63.8,38.4,30.32,NW,309,2.0,2.0,39,0.00,,---,0.00,VWS V14.01,2013-04-30 13:14:00,
2013-04-30 09:15:00,63.2,33.6,30.32,NW,311,1.0,2.0,33,0.00,,---,0.00,VWS V14.01,2013-04-30 13:15:00,
2013-04-30 09:18:00,62.2,38.2,30.32,NW,309,2.0,2.0,41,0.00,,---,0.00,VWS V14.01,2013-04-30 13:18:00,
2013-04-30 09:20:00,61.4,33.5,30.32,WNW,302,2.0,3.0,35,0.00,,---,0.00,VWS V14.01,2013-04-30 13:20:00,
2013-04-30 09:21:00,61.4,33.5,30.32,WNW,302,2.0,3.0,35,0.00,,---,0.00,VWS V14.01,2013-04-30 13:21:00,
2013-04-30 09:23:00,60.9,33.8,30.32,NW,305,2.0,3.0,36,0.00,,---,0.00,VWS V14.01,2013-04-30 13:23:00,
2013-04-30 09:24:00,60.5,33.4,30.32,NW,304,2.0,3.0,36,0.00,,---,0.00,VWS V14.01,2013-04-30 13:24:00,
2013-04-30 09:25:00,60.3,35.9,30.32,NW,313,1.0,3.0,40,0.00,,---,0.00,VWS V14.01,2013-04-30 13:25:00,
2013-04-30 09:27:00,60.3,33.3,30.32,NW,307,2.0,3.0,36,0.00,,---,0.00,VWS V14.01,2013-04-30 13:27:00,
2013-04-30 09:28:00,60.2,33.8,30.32,NW,311,2.0,3.0,37,0.00,,---,0.00,VWS V14.01,2013-04-30 13:28:00,
2013-04-30 09:29:00,60.1,35.7,30.32,NW,307,2.0,3.0,40,0.00,,---,0.00,VWS V14.01,2013-04-30 13:29:00,
2013-04-30 09:31:00,59.7,34.1,30.32,NW,311,2.0,2.0,38,0.00,,---,0.00,VWS V14.01,2013-04-30 13:31:00,
2013-04-30 09:32:00,59.6,35.3,30.32,NW,316,1.0,2.0,40,0.00,,---,0.00,VWS V14.01,2013-04-30 13:32:00,
2013-04-30 09:34:00,59.4,32.5,30.32,NW,313,1.0,2.0,36,0.00,,---,0.00,VWS V14.01,2013-04-30 13:34:00,
2013-04-30 09:35:00,59.4,32.5,30.32,NW,312,0.0,2.0,36,0.00,,---,0.00,VWS V14.01,2013-04-30 13:35:00,
2013-04-30 09:37:00,59.4,35.7,30.32,NW,307,0.0,2.0,41,0.00,,---,0.00,VWS V14.01,2013-04-30 13:37:00,
2013-04-30 09:38:00,59.6,35.3,30.32,NW,307,0.0,2.0,40,0.00,,---,0.00,VWS V14.01,2013-04-30 13:38:00,
2013-04-30 09:40:00,60.0,37.5,30.32,NW,311,0.0,2.0,43,0.00,,---,0.00,VWS V14.01,2013-04-30 13:40:00,
2013-04-30 09:42:00,60.7,35.0,30.32,NW,311,0.0,2.0,38,0.00,,---,0.00,VWS V14.01,2013-04-30 13:42:00,
2013-04-30 09:43:00,61.2,36.7,30.32,NW,312,0.0,2.0,40,0.00,,---,0.00,VWS V14.01,2013-04-30 13:43:00,
2013-04-30 09:46:00,62.0,35.5,30.32,NW,307,0.0,2.0,37,0.00,,---,0.00,VWS V14.01,2013-04-30 13:46:00,
2013-04-30 09:47:00,62.5,35.9,30.32,NW,308,0.0,2.0,37,0.00,,---,0.00,VWS V14.01,2013-04-30 13:47:00,
2013-04-30 09:48:00,62.9,35.6,30.32,NW,307,0.0,2.0,36,0.00,,---,0.00,VWS V14.01,2013-04-30 13:48:00,
2013-04-30 09:49:00,63.3,35.9,30.32,NW,308,0.0,2.0,36,0.00,,---,0.00,VWS V14.01,2013-04-30 13:49:00,
2013-04-30 09:51:00,64.0,37.2,30.32,NW,311,0.0,2.0,37,0.00,,---,0.00,VWS V14.01,2013-04-30 13:51:00,
2013-04-30 09:52:00,64.7,37.8,30.32,NW,311,0.0,2.0,37,0.00,,---,0.00,VWS V14.01,2013-04-30 13:52:00,
2013-04-30 09:53:00,65.3,36.2,30.32,NW,307,0.0,2.0,34,0.00,,---,0.00,VWS V14.01,2013-04-30 13:53:00,
2013-04-30 09:54:00,65.5,36.4,30.32,NW,305,1.0,2.0,34,0.00,,---,0.00,VWS V14.01,2013-04-30 13:54:00,
2013-04-30 09:55:00,65.6,34.2,30.32,NW,304,0.0,2.0,31,0.00,,---,0.00,VWS V14.01,2013-04-30 13:55:00,
2013-04-30 09:56:00,65.3,32.3,30.32,NW,305,0.0,2.0,29,0.00,,---,0.00,VWS V14.01,2013-04-30 13:56:00,
2013-04-30 09:58:00,64.9,32.8,30.32,NW,305,0.0,2.0,30,0.00,,---,0.00,VWS V14.01,2013-04-30 13:58:00,
2013-04-30 09:59:00,64.4,33.1,30.32,NW,304,0.0,2.0,31,0.00,,---,0.00,VWS V14.01,2013-04-30 13:59:00,
2013-04-30 10:00:00,64.2,33.0,30.32,NW,304,0.0,1.0,31,0.00,,---,0.00,VWS V14.01,2013-04-30 14:00:00,
2013-04-30 10:03:00,64.0,33.6,30.32,NW,304,1.0,1.0,32,0.00,,---,0.00,VWS V14.01,2013-04-30 14:03:00,
2013-04-30 10:05:00,64.3,34.6,30.32,NW,304,0.0,1.0,33,0.00,,---,0.00,VWS V14.01,2013-04-30 14:05:00,
2013-04-30 10:06:00,64.6,34.9,30.32,NW,307,0.0,1.0,33,0.00,,---,0.00,VWS V14.01,2013-04-30 14:06:00,
2013-04-30 10:08:00,65.1,35.3,30.32,NW,308,0.0,1.0,33,0.00,,---,0.00,VWS V14.01,2013-04-30 14:08:00,
2013-04-30 10:10:00,65.4,35.6,30.32,NW,304,0.0,1.0,33,0.00,,---,0.00,VWS V14.01,2013-04-30 14:10:00,
2013-04-30 10:11:00,65.5,34.9,30.32,NW,308,0.0,1.0,32,0.00,,---,0.00,VWS V14.01,2013-04-30 14:11:00,
2013-04-30 10:12:00,65.6,36.5,30.32,NW,304,0.0,1.0,34,0.00,,---,0.00,VWS V14.01,2013-04-30 14:12:00,
2013-04-30 10:13:00,66.0,36.1,30.32,NW,308,0.0,1.0,33,0.00,,---,0.00,VWS V14.01,2013-04-30 14:13:00,
2013-04-30 10:14:00,66.5,36.5,30.32,NW,306,1.0,1.0,33,0.00,,---,0.00,VWS V14.01,2013-04-30 14:14:00,
2013-04-30 10:15:00,67.1,36.3,30.32,NW,304,0.0,1.0,32,0.00,,---,0.00,VWS V14.01,2013-04-30 14:15:00,
2013-04-30 10:16:00,67.5,35.8,30.32,NW,305,1.0,1.0,31,0.00,,---,0.00,VWS V14.01,2013-04-30 14:16:00,
2013-04-30 10:18:00,67.3,34.8,30.32,NW,304,1.0,1.0,30,0.00,,---,0.00,VWS V14.01,2013-04-30 14:18:00,
2013-04-30 10:19:00,66.9,35.3,30.32,NW,309,0.0,1.0,31,0.00,,---,0.00,VWS V14.01,2013-04-30 14:19:00,
2013-04-30 10:21:00,67.3,36.5,30.32,NW,308,0.0,1.0,32,0.00,,---,0.00,VWS V14.01,2013-04-30 14:21:00,
2013-04-30 10:23:00,68.1,36.3,30.32,NW,304,0.0,1.0,31,0.00,,---,0.00,VWS V14.01,2013-04-30 14:23:00,
2013-04-30 10:24:00,68.1,36.3,30.32,NW,304,1.0,1.0,31,0.00,,---,0.00,VWS V14.01,2013-04-30 14:24:00,
2013-04-30 10:27:00,68.0,36.3,30.32,NW,304,0.0,1.0,31,0.00,,---,0.00,VWS V14.01,2013-04-30 14:27:00,
2013-04-30 10:29:00,68.2,37.2,30.32,NW,307,0.0,1.0,32,0.00,,---,0.00,VWS V14.01,2013-04-30 14:29:00,
2013-04-30 10:30:00,68.3,37.3,30.32,NW,305,0.0,1.0,32,0.00,,---,0.00,VWS V14.01,2013-04-30 14:30:00,
2013-04-30 10:32:00,67.8,35.3,30.32,WNW,301,2.0,2.0,30,0.00,,---,0.00,VWS V14.01,2013-04-30 14:32:00,
2013-04-30 10:35:00,66.4,34.9,30.32,WNW,300,2.0,2.0,31,0.00,,---,0.00,VWS V14.01,2013-04-30 14:35:00,
2013-04-30 10:36:00,65.8,35.2,30.32,WNW,300,1.0,2.0,32,0.00,,---,0.00,VWS V14.01,2013-04-30 14:36:00,
2013-04-30 10:37:00,65.3,35.5,30.32,WNW,300,2.0,2.0,33,0.00,,---,0.00,VWS V14.01,2013-04-30 14:37:00,
2013-04-30 10:40:00,64.8,37.2,30.32,WNW,302,0.0,3.0,36,0.00,,---,0.00,VWS V14.01,2013-04-30 14:40:00,
2013-04-30 10:41:00,65.1,36.8,30.32,WNW,294,2.0,3.0,35,0.00,,---,0.00,VWS V14.01,2013-04-30 14:41:00,
2013-04-30 10:42:00,65.2,36.9,30.32,WNW,294,2.0,3.0,35,0.00,,---,0.00,VWS V14.01,2013-04-30 14:42:00,
2013-04-30 10:44:00,65.1,36.1,30.32,WNW,295,2.0,3.0,34,0.00,,---,0.00,VWS V14.01,2013-04-30 14:44:00,
2013-04-30 10:46:00,64.7,35.7,30.32,WNW,298,1.0,3.0,34,0.00,,---,0.00,VWS V14.01,2013-04-30 14:46:00,
2013-04-30 10:47:00,64.7,35.7,30.32,WNW,297,2.0,3.0,34,0.00,,---,0.00,VWS V14.01,2013-04-30 14:47:00,
2013-04-30 10:48:00,64.6,35.6,30.31,WNW,302,1.0,3.0,34,0.00,,---,0.00,VWS V14.01,2013-04-30 14:48:00,
2013-04-30 10:51:00,64.8,35.8,30.31,WNW,297,1.0,3.0,34,0.00,,---,0.00,VWS V14.01,2013-04-30 14:51:00,
2013-04-30 10:52:00,64.9,35.9,30.31,WNW,297,1.0,3.0,34,0.00,,---,0.00,VWS V14.01,2013-04-30 14:52:00,
2013-04-30 10:53:00,64.9,35.9,30.31,WNW,297,1.0,3.0,34,0.00,,---,0.00,VWS V14.01,2013-04-30 14:53:00,
2013-04-30 10:57:00,65.9,37.5,30.31,WNW,302,0.0,3.0,35,0.00,,---,0.00,VWS V14.01,2013-04-30 14:57:00,
2013-04-30 10:58:00,66.3,37.1,30.31,WNW,302,0.0,3.0,34,0.00,,---,0.00,VWS V14.01,2013-04-30 14:58:00,
2013-04-30 10:59:00,66.8,36.8,30.31,WNW,302,1.0,3.0,33,0.00,,---,0.00,VWS V14.01,2013-04-30 14:59:00,
2013-04-30 11:03:00,67.9,37.0,30.31,WNW,300,1.0,1.0,32,0.00,,---,0.00,VWS V14.01,2013-04-30 15:03:00,
2013-04-30 11:04:00,67.9,37.0,30.31,WNW,300,1.0,1.0,32,0.00,,---,0.00,VWS V14.01,2013-04-30 15:04:00,
2013-04-30 11:08:00,66.9,36.9,30.31,WNW,296,1.0,2.0,33,0.00,,---,0.00,VWS V14.01,2013-04-30 15:08:00,
2013-04-30 11:09:00,66.4,37.2,30.31,WNW,295,2.0,2.0,34,0.00,,---,0.00,VWS V14.01,2013-04-30 15:09:00,
2013-04-30 11:10:00,66.3,37.1,30.31,WNW,295,2.0,2.0,34,0.00,,---,0.00,VWS V14.01,2013-04-30 15:10:00,
2013-04-30 11:13:00,65.8,38.1,30.31,SW,214,3.0,3.0,36,0.00,,---,0.00,VWS V14.01,2013-04-30 15:13:00,
2013-04-30 11:14:00,65.7,38.0,30.31,SW,215,3.0,3.0,36,0.00,,---,0.00,VWS V14.01,2013-04-30 15:14:00,
2013-04-30 11:15:00,65.6,37.2,30.31,SW,221,4.0,5.0,35,0.00,,---,0.00,VWS V14.01,2013-04-30 15:15:00,
2013-04-30 11:16:00,65.5,37.2,30.31,SW,218,2.0,5.0,35,0.00,,---,0.00,VWS V14.01,2013-04-30 15:16:00,
2013-04-30 11:19:00,65.8,38.8,30.31,SSW,212,3.0,5.0,37,0.00,,---,0.00,VWS V14.01,2013-04-30 15:19:00,
2013-04-30 11:20:00,66.2,37.8,30.30,SSW,211,2.0,5.0,35,0.00,,---,0.00,VWS V14.01,2013-04-30 15:20:00,
2013-04-30 11:21:00,66.4,37.9,30.30,SSW,207,3.0,5.0,35,0.00,,---,0.00,VWS V14.01,2013-04-30 15:21:00,
2013-04-30 11:22:00,66.4,37.9,30.30,SW,215,3.0,5.0,35,0.00,,---,0.00,VWS V14.01,2013-04-30 15:22:00,
2013-04-30 11:24:00,66.2,37.8,30.31,SW,225,3.0,5.0,35,0.00,,---,0.00,VWS V14.01,2013-04-30 15:24:00,
2013-04-30 11:25:00,66.1,36.9,30.31,SW,215,3.0,5.0,34,0.00,,---,0.00,VWS V14.01,2013-04-30 15:25:00,
2013-04-30 11:26:00,66.3,40.0,30.30,WSW,246,1.0,5.0,38,0.00,,---,0.00,VWS V14.01,2013-04-30 15:26:00,
2013-04-30 11:27:00,66.7,41.0,30.30,WSW,245,0.0,5.0,39,0.00,,---,0.00,VWS V14.01,2013-04-30 15:27:00,
2013-04-30 11:29:00,67.9,40.0,30.31,SW,221,2.0,5.0,36,0.00,,---,0.00,VWS V14.01,2013-04-30 15:29:00,
2013-04-30 11:31:00,68.5,38.3,30.30,SW,218,2.0,2.0,33,0.00,,---,0.00,VWS V14.01,2013-04-30 15:31:00,
2013-04-30 11:32:00,68.1,36.3,30.30,WSW,250,2.0,3.0,31,0.00,,---,0.00,VWS V14.01,2013-04-30 15:32:00,
2013-04-30 11:34:00,67.7,36.8,30.30,West,260,2.0,3.0,32,0.00,,---,0.00,VWS V14.01,2013-04-30 15:34:00,
2013-04-30 11:36:00,67.2,36.4,30.30,SW,220,2.0,3.0,32,0.00,,---,0.00,VWS V14.01,2013-04-30 15:36:00,
2013-04-30 11:37:00,67.0,36.2,30.30,SW,232,2.0,3.0,32,0.00,,---,0.00,VWS V14.01,2013-04-30 15:37:00,
2013-04-30 11:38:00,67.0,37.0,30.30,SSW,205,1.0,3.0,33,0.00,,---,0.00,VWS V14.01,2013-04-30 15:38:00,
2013-04-30 11:39:00,67.2,37.2,30.30,SW,217,0.0,3.0,33,0.00,,---,0.00,VWS V14.01,2013-04-30 15:39:00,
2013-04-30 11:42:00,69.0,39.5,30.30,SW,228,0.0,3.0,34,0.00,,---,0.00,VWS V14.01,2013-04-30 15:42:00,
2013-04-30 11:44:00,70.3,39.1,30.30,SW,228,1.0,3.0,32,0.00,,---,0.00,VWS V14.01,2013-04-30 15:44:00,
2013-04-30 11:45:00,70.7,36.9,30.30,SW,228,4.0,4.0,29,0.00,,---,0.00,VWS V14.01,2013-04-30 15:45:00,
2013-04-30 11:47:00,70.1,38.1,30.30,SSW,198,2.0,4.0,31,0.00,,---,0.00,VWS V14.01,2013-04-30 15:47:00,
2013-04-30 11:48:00,70.1,37.3,30.30,SW,214,0.0,4.0,30,0.00,,---,0.00,VWS V14.01,2013-04-30 15:48:00,
2013-04-30 11:49:00,70.3,38.3,30.30,SW,235,1.0,4.0,31,0.00,,---,0.00,VWS V14.01,2013-04-30 15:49:00,
2013-04-30 11:51:00,70.9,38.0,30.30,SSW,204,0.0,4.0,30,0.00,,---,0.00,VWS V14.01,2013-04-30 15:51:00,
2013-04-30 11:52:00,71.3,38.3,30.30,South,191,4.0,4.0,30,0.00,,---,0.00,VWS V14.01,2013-04-30 15:52:00,
2013-04-30 11:53:00,71.3,38.3,30.30,SW,222,2.0,5.0,30,0.00,,---,0.00,VWS V14.01,2013-04-30 15:53:00,
2013-04-30 11:54:00,71.4,38.4,30.30,South,173,3.0,5.0,30,0.00,,---,0.00,VWS V14.01,2013-04-30 15:54:00,
2013-04-30 11:55:00,71.5,39.3,30.30,SSW,204,2.0,5.0,31,0.00,,---,0.00,VWS V14.01,2013-04-30 15:55:00,
2013-04-30 11:57:00,71.7,37.8,30.30,SSW,213,1.0,5.0,29,0.00,,---,0.00,VWS V14.01,2013-04-30 15:57:00,
2013-04-30 11:58:00,71.6,37.7,30.30,SW,221,3.0,5.0,29,0.00,,---,0.00,VWS V14.01,2013-04-30 15:58:00,
2013-04-30 11:59:00,71.0,36.3,30.30,SW,236,2.0,5.0,28,0.00,,---,0.00,VWS V14.01,2013-04-30 15:59:00,
2013-04-30 12:01:00,70.2,35.6,30.30,WSW,239,2.0,3.0,28,0.00,,---,0.00,VWS V14.01,2013-04-30 16:01:00,
2013-04-30 12:02:00,69.5,35.9,30.29,South,181,2.0,3.0,29,0.00,,---,0.00,VWS V14.01,2013-04-30 16:02:00,
2013-04-30 12:03:00,69.5,38.4,30.30,SSW,205,0.0,3.0,32,0.00,,---,0.00,VWS V14.01,2013-04-30 16:03:00,
2013-04-30 12:05:00,70.0,36.3,30.29,SW,221,2.0,3.0,29,0.00,,---,0.00,VWS V14.01,2013-04-30 16:05:00,
2013-04-30 12:06:00,70.0,36.3,30.29,SW,218,1.0,3.0,29,0.00,,---,0.00,VWS V14.01,2013-04-30 16:06:00,
2013-04-30 12:07:00,69.9,36.2,30.29,SW,214,2.0,3.0,29,0.00,,---,0.00,VWS V14.01,2013-04-30 16:07:00,
2013-04-30 12:08:00,69.7,36.9,30.29,SW,223,2.0,3.0,30,0.00,,---,0.00,VWS V14.01,2013-04-30 16:08:00,
2013-04-30 12:09:00,69.4,36.7,30.29,WSW,238,2.0,3.0,30,0.00,,---,0.00,VWS V14.01,2013-04-30 16:09:00,
2013-04-30 12:11:00,68.6,36.0,30.29,West,269,1.0,3.0,30,0.00,,---,0.00,VWS V14.01,2013-04-30 16:11:00,
2013-04-30 12:12:00,68.4,35.8,30.29,SW,222,2.0,3.0,30,0.00,,---,0.00,VWS V14.01,2013-04-30 16:12:00,
2013-04-30 12:13:00,68.4,36.6,30.29,SW,217,2.0,3.0,31,0.00,,---,0.00,VWS V14.01,2013-04-30 16:13:00,
2013-04-30 12:14:00,68.4,36.6,30.29,WSW,240,3.0,3.0,31,0.00,,---,0.00,VWS V14.01,2013-04-30 16:14:00,
2013-04-30 12:16:00,68.3,36.5,30.29,West,259,1.0,3.0,31,0.00,,---,0.00,VWS V14.01,2013-04-30 16:16:00,
2013-04-30 12:17:00,68.3,36.5,30.29,West,259,0.0,3.0,31,0.00,,---,0.00,VWS V14.01,2013-04-30 16:17:00,
2013-04-30 12:18:00,68.3,36.5,30.29,West,259,0.0,3.0,31,0.00,,---,0.00,VWS V14.01,2013-04-30 16:18:00,
2013-04-30 12:21:00,68.4,36.6,30.29,WSW,253,2.0,3.0,31,0.00,,---,0.00,VWS V14.01,2013-04-30 16:21:00,
2013-04-30 12:22:00,68.3,36.5,30.29,West,263,1.0,3.0,31,0.00,,---,0.00,VWS V14.01,2013-04-30 16:22:00,
2013-04-30 12:24:00,68.4,35.8,30.29,WSW,248,2.0,3.0,30,0.00,,---,0.00,VWS V14.01,2013-04-30 16:24:00,
2013-04-30 12:26:00,68.5,36.7,30.29,WSW,248,1.0,3.0,31,0.00,,---,0.00,VWS V14.01,2013-04-30 16:26:00,
2013-04-30 12:28:00,68.6,36.0,30.29,WSW,248,0.0,3.0,30,0.00,,---,0.00,VWS V14.01,2013-04-30 16:28:00,
2013-04-30 12:29:00,68.8,37.0,30.29,SW,235,1.0,3.0,31,0.00,,---,0.00,VWS V14.01,2013-04-30 16:29:00,
2013-04-30 12:30:00,69.2,36.5,30.29,SSE,147,2.0,3.0,30,0.00,,---,0.00,VWS V14.01,2013-04-30 16:30:00,
2013-04-30 12:31:00,69.4,36.7,30.28,SSE,153,1.0,3.0,30,0.00,,---,0.00,VWS V14.01,2013-04-30 16:31:00,
2013-04-30 12:33:00,69.8,37.8,30.28,SSE,157,0.0,3.0,31,0.00,,---,0.00,VWS V14.01,2013-04-30 16:33:00,
2013-04-30 12:34:00,70.2,37.3,30.28,SSE,157,1.0,3.0,30,0.00,,---,0.00,VWS V14.01,2013-04-30 16:34:00,
2013-04-30 12:35:00,70.9,37.1,30.28,SSE,157,0.0,3.0,29,0.00,,---,0.00,VWS V14.01,2013-04-30 16:35:00,
2013-04-30 12:36:00,71.5,39.3,30.28,SSE,158,1.0,3.0,31,0.00,,---,0.00,VWS V14.01,2013-04-30 16:36:00,
2013-04-30 12:39:00,72.7,37.8,30.28,SE,143,2.0,3.0,28,0.00,,---,0.00,VWS V14.01,2013-04-30 16:39:00,
2013-04-30 12:41:00,71.8,37.0,30.28,SE,132,4.0,5.0,28,0.00,,---,0.00,VWS V14.01,2013-04-30 16:41:00,
2013-04-30 12:42:00,71.2,36.5,30.28,WSW,250,3.0,5.0,28,0.00,,---,0.00,VWS V14.01,2013-04-30 16:42:00,
2013-04-30 12:43:00,70.3,37.4,30.28,SW,217,4.0,5.0,30,0.00,,---,0.00,VWS V14.01,2013-04-30 16:43:00,
2013-04-30 12:45:00,69.8,37.0,30.28,SW,214,3.0,5.0,30,0.00,,---,0.00,VWS V14.01,2013-04-30 16:45:00,
2013-04-30 12:47:00,70.1,38.1,30.28,South,181,1.0,5.0,31,0.00,,---,0.00,VWS V14.01,2013-04-30 16:47:00,
2013-04-30 12:48:00,70.7,38.6,30.28,South,181,0.0,5.0,31,0.00,,---,0.00,VWS V14.01,2013-04-30 16:48:00,
2013-04-30 12:49:00,71.1,37.3,30.28,SW,229,2.0,5.0,29,0.00,,---,0.00,VWS V14.01,2013-04-30 16:49:00,
2013-04-30 12:51:00,71.0,38.0,30.28,South,174,0.0,5.0,30,0.00,,---,0.00,VWS V14.01,2013-04-30 16:51:00,
2013-04-30 12:53:00,71.1,40.6,30.28,SSW,197,2.0,5.0,33,0.00,,---,0.00,VWS V14.01,2013-04-30 16:53:00,
2013-04-30 12:55:00,71.4,37.5,30.28,SSE,165,2.0,5.0,29,0.00,,---,0.00,VWS V14.01,2013-04-30 16:55:00,
2013-04-30 12:56:00,71.3,36.5,30.28,WSW,247,3.0,5.0,28,0.00,,---,0.00,VWS V14.01,2013-04-30 16:56:00,
2013-04-30 12:58:00,70.3,35.7,30.28,West,260,2.0,5.0,28,0.00,,---,0.00,VWS V14.01,2013-04-30 16:58:00,
2013-04-30 13:00:00,69.8,37.0,30.28,SW,221,6.0,6.0,30,0.00,,---,0.00,VWS V14.01,2013-04-30 17:00:00,
2013-04-30 13:01:00,69.8,40.2,30.28,SSW,211,3.0,6.0,34,0.00,,---,0.00,VWS V14.01,2013-04-30 17:01:00,
2013-04-30 13:02:00,69.9,39.5,30.28,SE,143,3.0,6.0,33,0.00,,---,0.00,VWS V14.01,2013-04-30 17:02:00,
2013-04-30 13:03:00,70.3,37.4,30.28,SW,224,5.0,6.0,30,0.00,,---,0.00,VWS V14.01,2013-04-30 17:03:00,
2013-04-30 13:05:00,70.1,38.1,30.28,East,93,1.0,6.0,31,0.00,,---,0.00,VWS V14.01,2013-04-30 17:05:00,
2013-04-30 13:06:00,70.4,38.3,30.28,South,171,5.0,6.0,31,0.00,,---,0.00,VWS V14.01,2013-04-30 17:06:00,
2013-04-30 13:07:00,70.7,38.6,30.28,SSW,200,2.0,6.0,31,0.00,,---,0.00,VWS V14.01,2013-04-30 17:07:00,
2013-04-30 13:08:00,71.0,38.9,30.28,SSW,212,1.0,6.0,31,0.00,,---,0.00,VWS V14.01,2013-04-30 17:08:00,
2013-04-30 13:10:00,71.6,40.2,30.28,SE,128,2.0,6.0,32,0.00,,---,0.00,VWS V14.01,2013-04-30 17:10:00,
2013-04-30 13:11:00,72.1,39.8,30.28,ESE,123,1.0,6.0,31,0.00,,---,0.00,VWS V14.01,2013-04-30 17:11:00,
2013-04-30 13:13:00,72.7,39.5,30.28,SE,141,0.0,6.0,30,0.00,,---,0.00,VWS V14.01,2013-04-30 17:13:00,
2013-04-30 13:16:00,73.7,39.5,30.28,ESE,117,2.0,6.0,29,0.00,,---,0.00,VWS V14.01,2013-04-30 17:16:00,
2013-04-30 13:17:00,73.8,39.6,30.28,SSE,150,2.0,6.0,29,0.00,,---,0.00,VWS V14.01,2013-04-30 17:17:00,
2013-04-30 13:18:00,74.0,39.8,30.28,South,173,2.0,6.0,29,0.00,,---,0.00,VWS V14.01,2013-04-30 17:18:00,
2013-04-30 13:19:00,74.1,39.0,30.28,SE,141,0.0,6.0,28,0.00,,---,0.00,VWS V14.01,2013-04-30 17:19:00,
2013-04-30 13:22:00,73.5,36.5,30.27,WSW,246,3.0,6.0,26,0.00,,---,0.00,VWS V14.01,2013-04-30 17:22:00,
2013-04-30 13:23:00,72.5,36.7,30.28,SW,229,4.0,6.0,27,0.00,,---,0.00,VWS V14.01,2013-04-30 17:23:00,
2013-04-30 13:24:00,71.2,35.5,30.27,WSW,244,5.0,6.0,27,0.00,,---,0.00,VWS V14.01,2013-04-30 17:24:00,
2013-04-30 13:26:00,70.0,36.3,30.27,WSW,248,4.0,6.0,29,0.00,,---,0.00,VWS V14.01,2013-04-30 17:26:00,
2013-04-30 13:28:00,69.7,36.0,30.27,WSW,256,4.0,6.0,29,0.00,,---,0.00,VWS V14.01,2013-04-30 17:28:00,
2013-04-30 13:29:00,69.3,35.7,30.28,WSW,247,3.0,6.0,29,0.00,,---,0.00,VWS V14.01,2013-04-30 17:29:00,
2013-04-30 13:32:00,69.4,38.3,30.28,SSW,205,1.0,4.0,32,0.00,,---,0.00,VWS V14.01,2013-04-30 17:32:00,
2013-04-30 13:33:00,70.1,38.9,30.28,SE,135,0.0,4.0,32,0.00,,---,0.00,VWS V14.01,2013-04-30 17:33:00,
2013-04-30 13:34:00,70.4,39.2,30.28,SSE,167,1.0,4.0,32,0.00,,---,0.00,VWS V14.01,2013-04-30 17:34:00,
2013-04-30 13:35:00,71.0,37.2,30.28,SW,215,3.0,4.0,29,0.00,,---,0.00,VWS V14.01,2013-04-30 17:35:00,
2013-04-30 13:37:00,71.5,38.5,30.28,SW,221,6.0,6.0,30,0.00,,---,0.00,VWS V14.01,2013-04-30 17:37:00,
2013-04-30 13:38:00,71.4,37.5,30.28,SSW,210,1.0,6.0,29,0.00,,---,0.00,VWS V14.01,2013-04-30 17:38:00,
2013-04-30 13:39:00,71.4,37.5,30.28,SSE,166,2.0,6.0,29,0.00,,---,0.00,VWS V14.01,2013-04-30 17:39:00,
2013-04-30 13:41:00,71.7,37.8,30.28,SSE,166,5.0,6.0,29,0.00,,---,0.00,VWS V14.01,2013-04-30 17:41:00,
2013-04-30 13:42:00,71.8,37.9,30.28,ESE,114,3.0,6.0,29,0.00,,---,0.00,VWS V14.01,2013-04-30 17:42:00,
2013-04-30 13:44:00,71.9,38.8,30.28,SSE,165,1.0,6.0,30,0.00,,---,0.00,VWS V14.01,2013-04-30 17:44:00,
2013-04-30 13:45:00,72.0,38.9,30.28,SSE,166,1.0,6.0,30,0.00,,---,0.00,VWS V14.01,2013-04-30 17:45:00,
2013-04-30 13:46:00,72.3,39.2,30.28,SE,124,1.0,6.0,30,0.00,,---,0.00,VWS V14.01,2013-04-30 17:46:00,
2013-04-30 13:48:00,73.2,42.4,30.27,SE,146,4.0,6.0,33,0.00,,---,0.00,VWS V14.01,2013-04-30 17:48:00,
2013-04-30 13:51:00,72.0,36.2,30.27,SSW,195,1.0,6.0,27,0.00,,---,0.00,VWS V14.01,2013-04-30 17:51:00,
2013-04-30 13:52:00,71.7,37.8,30.27,SW,218,0.0,6.0,29,0.00,,---,0.00,VWS V14.01,2013-04-30 17:52:00,
2013-04-30 13:53:00,71.5,37.6,30.28,SE,136,1.0,6.0,29,0.00,,---,0.00,VWS V14.01,2013-04-30 17:53:00,
2013-04-30 13:54:00,71.5,37.6,30.28,SE,140,2.0,6.0,29,0.00,,---,0.00,VWS V14.01,2013-04-30 17:54:00,
2013-04-30 13:56:00,72.0,38.9,30.27,SSE,165,2.0,6.0,30,0.00,,---,0.00,VWS V14.01,2013-04-30 17:56:00,
2013-04-30 13:58:00,72.5,38.5,30.27,East,91,4.0,6.0,29,0.00,,---,0.00,VWS V14.01,2013-04-30 17:58:00,
2013-04-30 13:59:00,72.7,40.3,30.27,ESE,110,2.0,6.0,31,0.00,,---,0.00,VWS V14.01,2013-04-30 17:59:00,
2013-04-30 14:01:00,73.3,40.0,30.27,SW,217,1.0,2.0,30,0.00,,---,0.00,VWS V14.01,2013-04-30 18:01:00,
2013-04-30 14:03:00,73.2,38.2,30.27,SW,235,2.0,2.0,28,0.00,,---,0.00,VWS V14.01,2013-04-30 18:03:00,
2013-04-30 14:06:00,72.5,40.2,30.27,SW,214,0.0,2.0,31,0.00,,---,0.00,VWS V14.01,2013-04-30 18:06:00,
2013-04-30 14:08:00,72.7,36.8,30.27,SSW,208,2.0,3.0,27,0.00,,---,0.00,VWS V14.01,2013-04-30 18:08:00,
2013-04-30 14:09:00,72.6,39.4,30.27,WSW,245,3.0,3.0,30,0.00,,---,0.00,VWS V14.01,2013-04-30 18:09:00,
2013-04-30 14:11:00,73.0,38.0,30.27,SW,221,0.0,3.0,28,0.00,,---,0.00,VWS V14.01,2013-04-30 18:11:00,
2013-04-30 14:13:00,73.0,37.1,30.28,SSW,205,4.0,7.0,27,0.00,,---,0.00,VWS V14.01,2013-04-30 18:13:00,
2013-04-30 14:14:00,72.9,37.0,30.28,SSE,147,3.0,7.0,27,0.00,,---,0.00,VWS V14.01,2013-04-30 18:14:00,
2013-04-30 14:17:00,72.3,39.2,30.28,SSE,162,3.0,7.0,30,0.00,,---,0.00,VWS V14.01,2013-04-30 18:17:00,
2013-04-30 14:18:00,72.2,39.1,30.28,ESE,106,3.0,7.0,30,0.00,,---,0.00,VWS V14.01,2013-04-30 18:18:00,
2013-04-30 14:19:00,72.2,39.1,30.28,East,97,5.0,7.0,30,0.00,,---,0.00,VWS V14.01,2013-04-30 18:19:00,
2013-04-30 14:20:00,72.1,38.1,30.27,South,181,4.0,7.0,29,0.00,,---,0.00,VWS V14.01,2013-04-30 18:20:00,
2013-04-30 14:23:00,72.2,38.2,30.28,SE,143,2.0,7.0,29,0.00,,---,0.00,VWS V14.01,2013-04-30 18:23:00,
2013-04-30 14:25:00,72.6,38.5,30.28,SE,146,4.0,7.0,29,0.00,,---,0.00,VWS V14.01,2013-04-30 18:25:00,
2013-04-30 14:26:00,72.5,36.7,30.28,SE,134,1.0,7.0,27,0.00,,---,0.00,VWS V14.01,2013-04-30 18:26:00,
2013-04-30 14:29:00,72.5,36.7,30.27,SW,219,1.0,7.0,27,0.00,,---,0.00,VWS V14.01,2013-04-30 18:29:00,
2013-04-30 14:31:00,72.4,36.6,30.28,SW,221,2.0,2.0,27,0.00,,---,0.00,VWS V14.01,2013-04-30 18:31:00,
2013-04-30 14:32:00,72.3,36.5,30.28,SW,222,1.0,3.0,27,0.00,,---,0.00,VWS V14.01,2013-04-30 18:32:00,
2013-04-30 14:35:00,72.9,39.7,30.28,ESE,119,1.0,3.0,30,0.00,,---,0.00,VWS V14.01,2013-04-30 18:35:00,
2013-04-30 14:36:00,73.1,39.8,30.27,SSE,149,0.0,3.0,30,0.00,,---,0.00,VWS V14.01,2013-04-30 18:36:00,
2013-04-30 14:37:00,73.4,39.2,30.27,South,190,1.0,3.0,29,0.00,,---,0.00,VWS V14.01,2013-04-30 18:37:00,
2013-04-30 14:39:00,73.8,38.7,30.27,South,187,0.0,3.0,28,0.00,,---,0.00,VWS V14.01,2013-04-30 18:39:00,
2013-04-30 14:42:00,74.9,39.6,30.27,SSE,150,0.0,3.0,28,0.00,,---,0.00,VWS V14.01,2013-04-30 18:42:00,
2013-04-30 14:43:00,75.2,39.0,30.27,SSE,149,0.0,3.0,27,0.00,,---,0.00,VWS V14.01,2013-04-30 18:43:00,
2013-04-30 14:45:00,76.0,39.6,30.27,SW,217,1.0,3.0,27,0.00,,---,0.00,VWS V14.01,2013-04-30 18:45:00,
2013-04-30 14:46:00,76.1,38.8,30.27,ESE,110,4.0,4.0,26,0.00,,---,0.00,VWS V14.01,2013-04-30 18:46:00,
2013-04-30 14:47:00,75.7,38.4,30.27,SE,136,1.0,5.0,26,0.00,,---,0.00,VWS V14.01,2013-04-30 18:47:00,
2013-04-30 14:49:00,75.3,38.1,30.27,East,82,0.0,5.0,26,0.00,,---,0.00,VWS V14.01,2013-04-30 18:49:00,
2013-04-30 14:50:00,75.2,37.0,30.27,SE,139,0.0,5.0,25,0.00,,---,0.00,VWS V14.01,2013-04-30 18:50:00,
2013-04-30 14:51:00,75.4,39.1,30.27,South,188,1.0,5.0,27,0.00,,---,0.00,VWS V14.01,2013-04-30 18:51:00,
2013-04-30 14:54:00,75.1,36.9,30.27,East,88,3.0,6.0,25,0.00,,---,0.00,VWS V14.01,2013-04-30 18:54:00,
2013-04-30 14:55:00,74.0,36.0,30.27,SE,137,1.0,6.0,25,0.00,,---,0.00,VWS V14.01,2013-04-30 18:55:00,
2013-04-30 14:56:00,73.7,35.7,30.27,SE,136,1.0,6.0,25,0.00,,---,0.00,VWS V14.01,2013-04-30 18:56:00,
2013-04-30 14:58:00,72.7,36.8,30.27,SE,127,1.0,6.0,27,0.00,,---,0.00,VWS V14.01,2013-04-30 18:58:00,
2013-04-30 15:00:00,72.2,36.4,30.27,ESE,122,1.0,6.0,27,0.00,,---,0.00,VWS V14.01,2013-04-30 19:00:00,
2013-04-30 15:01:00,72.2,36.4,30.27,SE,132,2.0,3.0,27,0.00,,---,0.00,VWS V14.01,2013-04-30 19:01:00,
2013-04-30 15:03:00,72.7,35.9,30.26,SW,218,1.0,3.0,26,0.00,,---,0.00,VWS V14.01,2013-04-30 19:03:00,
2013-04-30 15:05:00,72.9,37.0,30.27,SW,231,2.0,3.0,27,0.00,,---,0.00,VWS V14.01,2013-04-30 19:05:00,
2013-04-30 15:06:00,72.9,37.0,30.27,SW,228,3.0,3.0,27,0.00,,---,0.00,VWS V14.01,2013-04-30 19:06:00,
2013-04-30 15:09:00,72.4,37.5,30.27,WSW,257,3.0,5.0,28,0.00,,---,0.00,VWS V14.01,2013-04-30 19:09:00,
2013-04-30 15:11:00,72.4,38.4,30.27,South,177,3.0,5.0,29,0.00,,---,0.00,VWS V14.01,2013-04-30 19:11:00,
2013-04-30 15:14:00,72.8,38.7,30.27,WSW,244,0.0,6.0,29,0.00,,---,0.00,VWS V14.01,2013-04-30 19:14:00,
2013-04-30 15:16:00,73.2,37.2,30.27,SSE,153,2.0,6.0,27,0.00,,---,0.00,VWS V14.01,2013-04-30 19:16:00,
2013-04-30 15:17:00,73.2,38.2,30.27,SW,228,1.0,6.0,28,0.00,,---,0.00,VWS V14.01,2013-04-30 19:17:00,
2013-04-30 15:19:00,73.0,37.1,30.27,WSW,238,8.0,10.0,27,0.00,,---,0.00,VWS V14.01,2013-04-30 19:19:00,
2013-04-30 15:22:00,71.8,36.0,30.26,West,260,4.0,10.0,27,0.00,,---,0.00,VWS V14.01,2013-04-30 19:22:00,
2013-04-30 15:24:00,71.4,37.5,30.26,SW,229,3.0,10.0,29,0.00,,---,0.00,VWS V14.01,2013-04-30 19:24:00,
2013-04-30 15:26:00,71.9,37.1,30.26,WSW,238,1.0,10.0,28,0.00,,---,0.00,VWS V14.01,2013-04-30 19:26:00,
2013-04-30 15:27:00,72.4,37.5,30.26,SE,128,3.0,10.0,28,0.00,,---,0.00,VWS V14.01,2013-04-30 19:27:00,
2013-04-30 15:29:00,73.0,38.9,30.26,ESE,113,2.0,10.0,29,0.00,,---,0.00,VWS V14.01,2013-04-30 19:29:00,
2013-04-30 15:30:00,73.2,37.2,30.26,East,91,2.0,10.0,27,0.00,,---,0.00,VWS V14.01,2013-04-30 19:30:00,
2013-04-30 15:32:00,73.1,38.1,30.26,SSE,155,7.0,8.0,28,0.00,,---,0.00,VWS V14.01,2013-04-30 19:32:00,
2013-04-30 15:33:00,73.0,39.8,30.26,WSW,250,8.0,10.0,30,0.00,,---,0.00,VWS V14.01,2013-04-30 19:33:00,
2013-04-30 15:35:00,72.6,38.5,30.26,SE,139,4.0,10.0,29,0.00,,---,0.00,VWS V14.01,2013-04-30 19:35:00,
2013-04-30 15:38:00,72.3,37.4,30.26,NE,55,1.0,10.0,28,0.00,,---,0.00,VWS V14.01,2013-04-30 19:38:00,
2013-04-30 15:39:00,72.3,37.4,30.26,ESE,106,4.0,10.0,28,0.00,,---,0.00,VWS V14.01,2013-04-30 19:39:00,
2013-04-30 15:40:00,72.2,39.9,30.26,ENE,75,3.0,10.0,31,0.00,,---,0.00,VWS V14.01,2013-04-30 19:40:00,
2013-04-30 15:41:00,72.2,39.9,30.26,South,186,6.0,10.0,31,0.00,,---,0.00,VWS V14.01,2013-04-30 19:41:00,
2013-04-30 15:44:00,71.4,43.8,30.26,SSE,162,7.0,10.0,37,0.00,,---,0.00,VWS V14.01,2013-04-30 19:44:00,
2013-04-30 15:46:00,70.6,37.7,30.26,SE,140,8.0,10.0,30,0.00,,---,0.00,VWS V14.01,2013-04-30 19:46:00,
2013-04-30 15:48:00,70.6,37.7,30.26,NNW,337,6.0,10.0,30,0.00,,---,0.00,VWS V14.01,2013-04-30 19:48:00,
2013-04-30 15:49:00,70.7,38.6,30.26,South,174,8.0,10.0,31,0.00,,---,0.00,VWS V14.01,2013-04-30 19:49:00,
2013-04-30 15:50:00,70.7,37.8,30.26,East,88,9.0,11.0,30,0.00,,---,0.00,VWS V14.01,2013-04-30 19:50:00,
2013-04-30 15:52:00,70.6,39.3,30.26,SW,215,8.0,11.0,32,0.00,,---,0.00,VWS V14.01,2013-04-30 19:52:00,
2013-04-30 15:53:00,70.4,36.7,30.26,SSE,147,15.0,16.0,29,0.00,,---,0.00,VWS V14.01,2013-04-30 19:53:00,
2013-04-30 15:55:00,70.0,36.3,30.26,ESE,115,6.0,17.0,29,0.00,,---,0.00,VWS V14.01,2013-04-30 19:55:00,
2013-04-30 15:56:00,69.7,35.2,30.26,SSW,203,2.0,17.0,28,0.00,,---,0.00,VWS V14.01,2013-04-30 19:56:00,
2013-04-30 15:58:00,70.0,36.3,30.26,SE,131,5.0,17.0,29,0.00,,---,0.00,VWS V14.01,2013-04-30 19:58:00,
2013-04-30 15:59:00,70.1,38.9,30.26,SE,143,6.0,17.0,32,0.00,,---,0.00,VWS V14.01,2013-04-30 19:59:00,
2013-04-30 16:01:00,70.1,38.9,30.26,ESE,120,9.0,9.0,32,0.00,,---,0.00,VWS V14.01,2013-04-30 20:01:00,
2013-04-30 16:03:00,69.6,40.0,30.26,South,183,8.0,13.0,34,0.00,,---,0.00,VWS V14.01,2013-04-30 20:03:00,
2013-04-30 16:04:00,69.5,40.7,30.26,SSE,159,8.0,13.0,35,0.00,,---,0.00,VWS V14.01,2013-04-30 20:04:00,
2013-04-30 16:07:00,69.3,39.0,30.26,South,181,7.0,13.0,33,0.00,,---,0.00,VWS V14.01,2013-04-30 20:07:00,
2013-04-30 16:08:00,69.4,39.1,30.26,SE,135,9.0,13.0,33,0.00,,---,0.00,VWS V14.01,2013-04-30 20:08:00,
2013-04-30 16:09:00,69.4,38.3,30.26,South,173,9.0,13.0,32,0.00,,---,0.00,VWS V14.01,2013-04-30 20:09:00,
2013-04-30 16:10:00,69.4,37.5,30.26,SSE,162,8.0,13.0,31,0.00,,---,0.00,VWS V14.01,2013-04-30 20:10:00,
2013-04-30 16:13:00,69.3,34.8,30.26,SE,139,13.0,15.0,28,0.00,,---,0.00,VWS V14.01,2013-04-30 20:13:00,
2013-04-30 16:14:00,69.0,35.5,30.26,SE,131,8.0,15.0,29,0.00,,---,0.00,VWS V14.01,2013-04-30 20:14:00,
2013-04-30 16:15:00,68.9,34.5,30.26,East,86,7.0,15.0,28,0.00,,---,0.00,VWS V14.01,2013-04-30 20:15:00,
2013-04-30 16:17:00,68.6,36.0,30.26,ESE,118,13.0,15.0,30,0.00,,---,0.00,VWS V14.01,2013-04-30 20:17:00,
2013-04-30 16:18:00,68.5,37.5,30.26,ESE,110,13.0,15.0,32,0.00,,---,0.00,VWS V14.01,2013-04-30 20:18:00,
2013-04-30 16:20:00,68.4,34.9,30.26,SE,143,9.0,15.0,29,0.00,,---,0.00,VWS V14.01,2013-04-30 20:20:00,
2013-04-30 16:21:00,68.5,36.7,30.26,SE,128,8.0,15.0,31,0.00,,---,0.00,VWS V14.01,2013-04-30 20:21:00,
2013-04-30 16:22:00,68.3,38.9,30.26,SE,131,11.0,15.0,34,0.00,,---,0.00,VWS V14.01,2013-04-30 20:22:00,
2013-04-30 16:24:00,67.7,38.3,30.26,SSE,147,12.0,17.0,34,0.00,,---,0.00,VWS V14.01,2013-04-30 20:24:00,
2013-04-30 16:26:00,67.5,36.6,30.26,SE,146,14.0,17.0,32,0.00,,---,0.00,VWS V14.01,2013-04-30 20:26:00,
2013-04-30 16:27:00,67.3,38.0,30.26,SE,141,16.0,17.0,34,0.00,,---,0.00,VWS V14.01,2013-04-30 20:27:00,
2013-04-30 16:28:00,67.3,34.8,30.26,SE,141,11.0,17.0,30,0.00,,---,0.00,VWS V14.01,2013-04-30 20:28:00,
2013-04-30 16:30:00,67.2,34.8,30.26,SE,135,11.0,12.0,30,0.00,,---,0.00,VWS V14.01,2013-04-30 20:30:00,
2013-04-30 16:31:00,67.0,39.2,30.26,SSE,147,11.0,13.0,36,0.00,,---,0.00,VWS V14.01,2013-04-30 20:31:00,
2013-04-30 16:32:00,66.9,37.7,30.26,SE,136,13.0,14.0,34,0.00,,---,0.00,VWS V14.01,2013-04-30 20:32:00,
2013-04-30 16:33:00,66.9,36.1,30.26,SE,130,15.0,16.0,32,0.00,,---,0.00,VWS V14.01,2013-04-30 20:33:00,
2013-04-30 16:36:00,67.3,34.0,30.26,ESE,117,16.0,22.0,29,0.00,,---,0.00,VWS V14.01,2013-04-30 20:36:00,
2013-04-30 16:37:00,67.4,34.1,30.26,ESE,122,17.0,22.0,29,0.00,,---,0.00,VWS V14.01,2013-04-30 20:37:00,
2013-04-30 16:38:00,67.5,35.0,30.26,SE,136,12.0,22.0,30,0.00,,---,0.00,VWS V14.01,2013-04-30 20:38:00,
2013-04-30 16:39:00,67.5,35.0,30.26,ESE,115,12.0,22.0,30,0.00,,---,0.00,VWS V14.01,2013-04-30 20:39:00,
2013-04-30 16:42:00,67.4,34.1,30.26,ESE,122,14.0,22.0,29,0.00,,---,0.00,VWS V14.01,2013-04-30 20:42:00,
2013-04-30 16:43:00,67.3,34.8,30.26,SE,146,12.0,22.0,30,0.00,,---,0.00,VWS V14.01,2013-04-30 20:43:00,
2013-04-30 16:44:00,67.3,37.2,30.27,SE,143,10.0,22.0,33,0.00,,---,0.00,VWS V14.01,2013-04-30 20:44:00,
2013-04-30 16:45:00,67.1,36.3,30.26,SSE,156,11.0,22.0,32,0.00,,---,0.00,VWS V14.01,2013-04-30 20:45:00,
2013-04-30 16:47:00,67.2,33.9,30.26,SE,145,13.0,22.0,29,0.00,,---,0.00,VWS V14.01,2013-04-30 20:47:00,
2013-04-30 16:49:00,67.3,35.7,30.26,ESE,123,13.0,22.0,31,0.00,,---,0.00,VWS V14.01,2013-04-30 20:49:00,
2013-04-30 16:50:00,67.2,36.4,30.26,SSE,152,11.0,22.0,32,0.00,,---,0.00,VWS V14.01,2013-04-30 20:50:00,
2013-04-30 16:51:00,67.2,35.6,30.26,East,100,14.0,22.0,31,0.00,,---,0.00,VWS V14.01,2013-04-30 20:51:00,
2013-04-30 16:53:00,67.1,34.7,30.26,SE,142,15.0,22.0,30,0.00,,---,0.00,VWS V14.01,2013-04-30 20:53:00,
2013-04-30 16:54:00,67.1,34.7,30.26,SE,145,12.0,22.0,30,0.00,,---,0.00,VWS V14.01,2013-04-30 20:54:00,
2013-04-30 16:55:00,67.0,34.6,30.26,SE,134,15.0,22.0,30,0.00,,---,0.00,VWS V14.01,2013-04-30 20:55:00,
2013-04-30 16:56:00,67.0,34.6,30.26,ESE,123,15.0,22.0,30,0.00,,---,0.00,VWS V14.01,2013-04-30 20:56:00,
2013-04-30 16:58:00,66.8,36.8,30.27,SE,129,14.0,22.0,33,0.00,,---,0.00,VWS V14.01,2013-04-30 20:58:00,
2013-04-30 17:00:00,67.0,35.4,30.27,SE,128,10.0,10.0,31,0.00,,---,0.00,VWS V14.01,2013-04-30 21:00:00,
2013-04-30 17:01:00,67.1,37.8,30.27,SSE,154,12.0,12.0,34,0.00,,---,0.00,VWS V14.01,2013-04-30 21:01:00,
2013-04-30 17:02:00,67.1,37.8,30.27,SE,140,13.0,15.0,34,0.00,,---,0.00,VWS V14.01,2013-04-30 21:02:00,
2013-04-30 17:03:00,67.1,36.3,30.27,SE,140,17.0,18.0,32,0.00,,---,0.00,VWS V14.01,2013-04-30 21:03:00,
2013-04-30 17:06:00,66.9,34.5,30.27,SE,135,11.0,18.0,30,0.00,,---,0.00,VWS V14.01,2013-04-30 21:06:00,
2013-04-30 17:07:00,66.9,35.3,30.27,SSE,149,14.0,18.0,31,0.00,,---,0.00,VWS V14.01,2013-04-30 21:07:00,
2013-04-30 17:08:00,66.9,36.9,30.27,SSE,148,12.0,18.0,33,0.00,,---,0.00,VWS V14.01,2013-04-30 21:08:00,
2013-04-30 17:11:00,66.9,33.6,30.26,ESE,103,15.0,18.0,29,0.00,,---,0.00,VWS V14.01,2013-04-30 21:11:00,
2013-04-30 17:12:00,66.9,33.6,30.26,ESE,108,16.0,20.0,29,0.00,,---,0.00,VWS V14.01,2013-04-30 21:12:00,
2013-04-30 17:13:00,67.0,35.4,30.27,SE,143,12.0,20.0,31,0.00,,---,0.00,VWS V14.01,2013-04-30 21:13:00,
2013-04-30 17:14:00,67.0,37.0,30.27,SSE,147,16.0,20.0,33,0.00,,---,0.00,VWS V14.01,2013-04-30 21:14:00,
2013-04-30 17:17:00,66.8,33.5,30.27,SE,146,13.0,20.0,29,0.00,,---,0.00,VWS V14.01,2013-04-30 21:17:00,
2013-04-30 17:18:00,66.8,33.5,30.27,ESE,110,18.0,20.0,29,0.00,,---,0.00,VWS V14.01,2013-04-30 21:18:00,
2013-04-30 17:19:00,66.9,33.6,30.27,ESE,113,12.0,20.0,29,0.00,,---,0.00,VWS V14.01,2013-04-30 21:19:00,
2013-04-30 17:22:00,66.9,33.6,30.27,ESE,117,12.0,20.0,29,0.00,,---,0.00,VWS V14.01,2013-04-30 21:22:00,
2013-04-30 17:23:00,66.9,34.5,30.27,East,84,12.0,20.0,30,0.00,,---,0.00,VWS V14.01,2013-04-30 21:23:00,
2013-04-30 17:24:00,66.9,33.6,30.27,East,98,12.0,20.0,29,0.00,,---,0.00,VWS V14.01,2013-04-30 21:24:00,
2013-04-30 17:25:00,66.9,34.5,30.27,SE,131,10.0,20.0,30,0.00,,---,0.00,VWS V14.01,2013-04-30 21:25:00,
2013-04-30 17:27:00,66.9,34.5,30.27,ESE,105,8.0,20.0,30,0.00,,---,0.00,VWS V14.01,2013-04-30 21:27:00,
2013-04-30 17:29:00,66.8,35.2,30.27,East,96,10.0,20.0,31,0.00,,---,0.00,VWS V14.01,2013-04-30 21:29:00,
2013-04-30 17:30:00,66.7,33.5,30.27,ESE,106,18.0,20.0,29,0.00,,---,0.00,VWS V14.01,2013-04-30 21:30:00,
2013-04-30 17:31:00,66.7,33.5,30.27,East,98,14.0,18.0,29,0.00,,---,0.00,VWS V14.01,2013-04-30 21:31:00,
2013-04-30 17:32:00,66.8,35.2,30.27,East,84,14.0,18.0,31,0.00,,---,0.00,VWS V14.01,2013-04-30 21:32:00,
2013-04-30 17:34:00,66.8,34.4,30.27,East,85,15.0,18.0,30,0.00,,---,0.00,VWS V14.01,2013-04-30 21:34:00,
2013-04-30 17:35:00,66.8,34.4,30.27,East,94,11.0,18.0,30,0.00,,---,0.00,VWS V14.01,2013-04-30 21:35:00,
2013-04-30 17:36:00,66.8,34.4,30.27,East,84,14.0,18.0,30,0.00,,---,0.00,VWS V14.01,2013-04-30 21:36:00,
2013-04-30 17:38:00,66.7,33.5,30.28,East,94,12.0,18.0,29,0.00,,---,0.00,VWS V14.01,2013-04-30 21:38:00,
2013-04-30 17:40:00,66.6,34.2,30.28,SE,131,10.0,18.0,30,0.00,,---,0.00,VWS V14.01,2013-04-30 21:40:00,
2013-04-30 17:41:00,66.6,35.0,30.28,ESE,104,15.0,18.0,31,0.00,,---,0.00,VWS V14.01,2013-04-30 21:41:00,
2013-04-30 17:42:00,66.6,34.2,30.27,ESE,113,12.0,18.0,30,0.00,,---,0.00,VWS V14.01,2013-04-30 21:42:00,
2013-04-30 17:43:00,66.6,34.2,30.28,SE,129,10.0,18.0,30,0.00,,---,0.00,VWS V14.01,2013-04-30 21:43:00,
2013-04-30 17:46:00,66.5,33.3,30.28,ESE,113,12.0,18.0,29,0.00,,---,0.00,VWS V14.01,2013-04-30 21:46:00,
2013-04-30 17:47:00,66.5,34.1,30.28,East,87,12.0,18.0,30,0.00,,---,0.00,VWS V14.01,2013-04-30 21:47:00,
2013-04-30 17:48:00,66.4,35.7,30.28,SE,127,17.0,18.0,32,0.00,,---,0.00,VWS V14.01,2013-04-30 21:48:00,
2013-04-30 17:51:00,66.1,33.8,30.28,SSE,154,13.0,18.0,30,0.00,,---,0.00,VWS V14.01,2013-04-30 21:51:00,
2013-04-30 17:53:00,66.0,33.7,30.28,SE,141,13.0,18.0,30,0.00,,---,0.00,VWS V14.01,2013-04-30 21:53:00,
2013-04-30 17:54:00,65.8,35.9,30.28,SE,135,16.0,18.0,33,0.00,,---,0.00,VWS V14.01,2013-04-30 21:54:00,
2013-04-30 17:56:00,65.8,32.7,30.28,SE,132,11.0,20.0,29,0.00,,---,0.00,VWS V14.01,2013-04-30 21:56:00,
2013-04-30 17:58:00,65.8,37.4,30.28,ESE,103,14.0,20.0,35,0.00,,---,0.00,VWS V14.01,2013-04-30 21:58:00,
2013-04-30 17:59:00,65.7,34.3,30.28,ESE,103,11.0,20.0,31,0.00,,---,0.00,VWS V14.01,2013-04-30 21:59:00,
2013-04-30 18:00:00,65.7,37.3,30.28,East,99,12.0,20.0,35,0.00,,---,0.00,VWS V14.01,2013-04-30 22:00:00,
2013-04-30 18:01:00,65.7,35.8,30.28,ESE,110,11.0,18.0,33,0.00,,---,0.00,VWS V14.01,2013-04-30 22:01:00,
2013-04-30 18:02:00,65.6,35.8,30.28,East,83,16.0,18.0,33,0.00,,---,0.00,VWS V14.01,2013-04-30 22:02:00,
2013-04-30 18:04:00,65.7,33.5,30.28,ESE,110,12.0,18.0,30,0.00,,---,0.00,VWS V14.01,2013-04-30 22:04:00,
2013-04-30 18:05:00,65.8,34.3,30.28,East,93,18.0,19.0,31,0.00,,---,0.00,VWS V14.01,2013-04-30 22:05:00,
2013-04-30 18:06:00,65.8,33.5,30.28,East,89,18.0,19.0,30,0.00,,---,0.00,VWS V14.01,2013-04-30 22:06:00,
2013-04-30 18:07:00,65.8,35.2,30.28,East,96,12.0,19.0,32,0.00,,---,0.00,VWS V14.01,2013-04-30 22:07:00,
2013-04-30 18:08:00,65.7,35.1,30.28,East,96,14.0,19.0,32,0.00,,---,0.00,VWS V14.01,2013-04-30 22:08:00,
2013-04-30 18:10:00,65.6,33.4,30.28,ESE,103,11.0,19.0,30,0.00,,---,0.00,VWS V14.01,2013-04-30 22:10:00,
2013-04-30 18:11:00,65.5,34.1,30.28,ESE,113,15.0,19.0,31,0.00,,---,0.00,VWS V14.01,2013-04-30 22:11:00,
2013-04-30 18:13:00,65.5,33.3,30.28,East,94,11.0,20.0,30,0.00,,---,0.00,VWS V14.01,2013-04-30 22:13:00,
2013-04-30 18:16:00,65.3,33.1,30.28,East,96,14.0,20.0,30,0.00,,---,0.00,VWS V14.01,2013-04-30 22:16:00,
2013-04-30 18:17:00,65.2,34.6,30.28,ESE,103,12.0,20.0,32,0.00,,---,0.00,VWS V14.01,2013-04-30 22:17:00,
2013-04-30 18:18:00,65.2,33.0,30.28,SE,125,7.0,20.0,30,0.00,,---,0.00,VWS V14.01,2013-04-30 22:18:00,
2013-04-30 18:22:00,65.2,36.9,30.29,East,101,9.0,20.0,35,0.00,,---,0.00,VWS V14.01,2013-04-30 22:22:00,
2013-04-30 18:23:00,65.0,37.4,30.29,SE,138,14.0,20.0,36,0.00,,---,0.00,VWS V14.01,2013-04-30 22:23:00,
2013-04-30 18:24:00,64.8,36.5,30.29,SE,128,13.0,20.0,35,0.00,,---,0.00,VWS V14.01,2013-04-30 22:24:00,
2013-04-30 18:28:00,64.5,35.5,30.29,ESE,108,11.0,20.0,34,0.00,,---,0.00,VWS V14.01,2013-04-30 22:28:00,
2013-04-30 18:29:00,64.5,35.5,30.29,ESE,113,9.0,20.0,34,0.00,,---,0.00,VWS V14.01,2013-04-30 22:29:00,
2013-04-30 18:30:00,64.4,36.2,30.29,ESE,108,12.0,20.0,35,0.00,,---,0.00,VWS V14.01,2013-04-30 22:30:00,
2013-04-30 18:33:00,64.4,33.9,30.29,ESE,105,8.0,17.0,32,0.00,,---,0.00,VWS V14.01,2013-04-30 22:33:00,
2013-04-30 18:34:00,64.4,34.7,30.29,WNW,283,5.0,17.0,33,0.00,,---,0.00,VWS V14.01,2013-04-30 22:34:00,
2013-04-30 18:35:00,64.4,34.7,30.29,SE,146,12.0,17.0,33,0.00,,---,0.00,VWS V14.01,2013-04-30 22:35:00,
2013-04-30 18:36:00,64.3,36.1,30.29,ESE,123,15.0,18.0,35,0.00,,---,0.00,VWS V14.01,2013-04-30 22:36:00,
2013-04-30 18:39:00,64.2,34.5,30.29,SE,145,15.0,19.0,33,0.00,,---,0.00,VWS V14.01,2013-04-30 22:39:00,
2013-04-30 18:41:00,64.2,33.8,30.29,ESE,110,6.0,19.0,32,0.00,,---,0.00,VWS V14.01,2013-04-30 22:41:00,
2013-04-30 18:44:00,64.1,32.9,30.29,East,90,8.0,19.0,31,0.00,,---,0.00,VWS V14.01,2013-04-30 22:44:00,
2013-04-30 18:45:00,64.1,32.9,30.29,ESE,104,9.0,19.0,31,0.00,,---,0.00,VWS V14.01,2013-04-30 22:45:00,
2013-04-30 18:46:00,64.0,36.5,30.29,East,82,11.0,19.0,36,0.00,,---,0.00,VWS V14.01,2013-04-30 22:46:00,
2013-04-30 18:48:00,63.9,35.0,30.29,East,94,11.0,19.0,34,0.00,,---,0.00,VWS V14.01,2013-04-30 22:48:00,
2013-04-30 18:50:00,63.7,34.1,30.29,East,99,15.0,19.0,33,0.00,,---,0.00,VWS V14.01,2013-04-30 22:50:00,
2013-04-30 18:51:00,63.7,33.3,30.30,ESE,121,12.0,19.0,32,0.00,,---,0.00,VWS V14.01,2013-04-30 22:51:00,
2013-04-30 18:53:00,63.7,34.1,30.30,SE,128,6.0,19.0,33,0.00,,---,0.00,VWS V14.01,2013-04-30 22:53:00,
2013-04-30 18:55:00,63.6,34.0,30.30,ESE,113,11.0,19.0,33,0.00,,---,0.00,VWS V14.01,2013-04-30 22:55:00,
2013-04-30 18:56:00,63.6,34.0,30.30,SSE,147,8.0,19.0,33,0.00,,---,0.00,VWS V14.01,2013-04-30 22:56:00,
2013-04-30 19:00:00,63.5,34.7,30.30,SE,139,5.0,19.0,34,0.00,,---,0.00,VWS V14.01,2013-04-30 23:00:00,
2013-04-30 19:01:00,63.4,35.3,30.30,SE,136,9.0,13.0,35,0.00,,---,0.00,VWS V14.01,2013-04-30 23:01:00,
2013-04-30 19:05:00,63.3,33.7,30.30,ESE,118,10.0,13.0,33,0.00,,---,0.00,VWS V14.01,2013-04-30 23:05:00,
2013-04-30 19:06:00,63.2,35.1,30.30,ESE,103,14.0,15.0,35,0.00,,---,0.00,VWS V14.01,2013-04-30 23:06:00,
2013-04-30 19:07:00,63.2,32.9,30.30,East,96,12.0,15.0,32,0.00,,---,0.00,VWS V14.01,2013-04-30 23:07:00,
2013-04-30 19:10:00,63.1,33.6,30.30,SSE,153,10.0,20.0,33,0.00,,---,0.00,VWS V14.01,2013-04-30 23:10:00,
2013-04-30 19:11:00,63.1,34.3,30.30,SSW,195,9.0,20.0,34,0.00,,---,0.00,VWS V14.01,2013-04-30 23:11:00,
2013-04-30 19:12:00,63.0,33.5,30.30,East,86,10.0,20.0,33,0.00,,---,0.00,VWS V14.01,2013-04-30 23:12:00,
2013-04-30 19:13:00,62.9,34.1,30.30,ESE,110,10.0,20.0,34,0.00,,---,0.00,VWS V14.01,2013-04-30 23:13:00,
2013-04-30 19:16:00,62.7,33.2,30.30,ESE,118,14.0,20.0,33,0.00,,---,0.00,VWS V14.01,2013-04-30 23:16:00,
2013-04-30 19:17:00,62.7,33.2,30.30,SE,132,7.0,20.0,33,0.00,,---,0.00,VWS V14.01,2013-04-30 23:17:00,
2013-04-30 19:18:00,62.6,34.6,30.30,ESE,103,8.0,20.0,35,0.00,,---,0.00,VWS V14.01,2013-04-30 23:18:00,
2013-04-30 19:19:00,62.5,33.0,30.30,SE,124,13.0,20.0,33,0.00,,---,0.00,VWS V14.01,2013-04-30 23:19:00,
2013-04-30 19:21:00,62.4,32.9,30.30,East,91,16.0,20.0,33,0.00,,---,0.00,VWS V14.01,2013-04-30 23:21:00,
2013-04-30 19:23:00,62.3,33.6,30.30,ESE,108,14.0,20.0,34,0.00,,---,0.00,VWS V14.01,2013-04-30 23:23:00,
2013-04-30 19:24:00,62.2,32.8,30.30,SE,131,10.0,20.0,33,0.00,,---,0.00,VWS V14.01,2013-04-30 23:24:00,
2013-04-30 19:25:00,62.2,33.5,30.31,ESE,102,12.0,20.0,34,0.00,,---,0.00,VWS V14.01,2013-04-30 23:25:00,
2013-04-30 19:26:00,62.1,32.7,30.31,ESE,105,12.0,20.0,33,0.00,,---,0.00,VWS V14.01,2013-04-30 23:26:00,
2013-04-30 19:28:00,62.1,33.4,30.31,SE,124,13.0,20.0,34,0.00,,---,0.00,VWS V14.01,2013-04-30 23:28:00,
2013-04-30 19:29:00,62.0,34.1,30.31,SE,138,9.0,20.0,35,0.00,,---,0.00,VWS V14.01,2013-04-30 23:29:00,
2013-04-30 19:31:00,61.8,32.4,30.31,SE,129,14.0,16.0,33,0.00,,---,0.00,VWS V14.01,2013-04-30 23:31:00,
2013-04-30 19:33:00,61.8,32.4,30.31,ESE,111,9.0,16.0,33,0.00,,---,0.00,VWS V14.01,2013-04-30 23:33:00,
2013-04-30 19:34:00,61.8,32.4,30.31,East,96,8.0,16.0,33,0.00,,---,0.00,VWS V14.01,2013-04-30 23:34:00,
2013-04-30 19:35:00,61.7,33.8,30.31,East,89,8.0,16.0,35,0.00,,---,0.00,VWS V14.01,2013-04-30 23:35:00,
2013-04-30 19:37:00,61.6,33.7,30.31,East,81,13.0,16.0,35,0.00,,---,0.00,VWS V14.01,2013-04-30 23:37:00,
2013-04-30 19:39:00,61.5,32.9,30.31,ESE,111,8.0,16.0,34,0.00,,---,0.00,VWS V14.01,2013-04-30 23:39:00,
2013-04-30 19:41:00,61.4,32.1,30.31,SE,125,5.0,16.0,33,0.00,,---,0.00,VWS V14.01,2013-04-30 23:41:00,
2013-04-30 19:43:00,61.4,32.8,30.31,ESE,108,8.0,16.0,34,0.00,,---,0.00,VWS V14.01,2013-04-30 23:43:00,
2013-04-30 19:44:00,61.3,32.7,30.31,ESE,105,12.0,16.0,34,0.00,,---,0.00,VWS V14.01,2013-04-30 23:44:00,
2013-04-30 19:45:00,61.3,32.7,30.31,East,98,13.0,16.0,34,0.00,,---,0.00,VWS V14.01,2013-04-30 23:45:00,
2013-04-30 19:46:00,61.2,31.9,30.31,East,96,10.0,16.0,33,0.00,,---,0.00,VWS V14.01,2013-04-30 23:46:00,
2013-04-30 19:48:00,61.1,33.3,30.31,East,99,9.0,16.0,35,0.00,,---,0.00,VWS V14.01,2013-04-30 23:48:00,
2013-04-30 19:50:00,60.9,34.5,30.31,ESE,108,7.0,16.0,37,0.00,,---,0.00,VWS V14.01,2013-04-30 23:50:00,
2013-04-30 19:51:00,60.8,34.4,30.32,East,84,10.0,16.0,37,0.00,,---,0.00,VWS V14.01,2013-04-30 23:51:00,
2013-04-30 19:53:00,60.8,34.4,30.32,East,94,7.0,16.0,37,0.00,,---,0.00,VWS V14.01,2013-04-30 23:53:00,
2013-04-30 19:55:00,60.7,32.2,30.32,East,83,7.0,16.0,34,0.00,,---,0.00,VWS V14.01,2013-04-30 23:55:00,
2013-04-30 19:56:00,60.7,35.0,30.32,East,98,8.0,16.0,38,0.00,,---,0.00,VWS V14.01,2013-04-30 23:56:00,
2013-04-30 19:57:00,60.6,32.8,30.32,East,97,10.0,16.0,35,0.00,,---,0.00,VWS V14.01,2013-04-30 23:57:00,
2013-04-30 19:58:00,60.5,32.0,30.32,East,83,4.0,16.0,34,0.00,,---,0.00,VWS V14.01,2013-04-30 23:58:00,
2013-04-30 20:00:00,60.5,32.0,30.32,ENE,77,8.0,12.0,34,0.00,,---,0.00,VWS V14.01,2013-05-01 00:00:00,
2013-04-30 20:01:00,60.4,31.9,30.32,ESE,108,8.0,12.0,34,0.00,,---,0.00,VWS V14.01,2013-05-01 00:01:00,
2013-04-30 20:02:00,60.4,32.7,30.32,East,79,9.0,12.0,35,0.00,,---,0.00,VWS V14.01,2013-05-01 00:02:00,
2013-04-30 20:04:00,60.4,33.3,30.32,ESE,108,7.0,12.0,36,0.00,,---,0.00,VWS V14.01,2013-05-01 00:04:00,
2013-04-30 20:05:00,60.3,33.9,30.32,East,94,5.0,12.0,37,0.00,,---,0.00,VWS V14.01,2013-05-01 00:05:00,
2013-04-30 20:06:00,60.3,31.8,30.32,ESE,115,6.0,12.0,34,0.00,,---,0.00,VWS V14.01,2013-05-01 00:06:00,
2013-04-30 20:08:00,60.2,31.8,30.32,East,89,5.0,12.0,34,0.00,,---,0.00,VWS V14.01,2013-05-01 00:08:00,
2013-04-30 20:10:00,60.1,32.4,30.32,ESE,105,6.0,12.0,35,0.00,,---,0.00,VWS V14.01,2013-05-01 00:10:00,
2013-04-30 20:11:00,60.1,32.4,30.32,ESE,122,5.0,12.0,35,0.00,,---,0.00,VWS V14.01,2013-05-01 00:11:00,
2013-04-30 20:12:00,60.0,32.3,30.32,East,90,7.0,12.0,35,0.00,,---,0.00,VWS V14.01,2013-05-01 00:12:00,
2013-04-30 20:14:00,59.9,34.2,30.32,East,81,6.0,12.0,38,0.00,,---,0.00,VWS V14.01,2013-05-01 00:14:00,
2013-04-30 20:16:00,59.8,33.5,30.32,East,91,8.0,12.0,37,0.00,,---,0.00,VWS V14.01,2013-05-01 00:16:00,
2013-04-30 20:17:00,59.8,32.1,30.32,ESE,108,8.0,12.0,35,0.00,,---,0.00,VWS V14.01,2013-05-01 00:17:00,
2013-04-30 20:19:00,59.7,31.3,30.32,ESE,103,10.0,12.0,34,0.00,,---,0.00,VWS V14.01,2013-05-01 00:19:00,
2013-04-30 20:21:00,59.7,31.3,30.32,SE,134,6.0,12.0,34,0.00,,---,0.00,VWS V14.01,2013-05-01 00:21:00,
2013-04-30 20:22:00,59.7,31.3,30.32,East,100,8.0,12.0,34,0.00,,---,0.00,VWS V14.01,2013-05-01 00:22:00,
2013-04-30 20:24:00,59.6,31.9,30.32,East,91,5.0,12.0,35,0.00,,---,0.00,VWS V14.01,2013-05-01 00:24:00,
2013-04-30 20:26:00,59.5,32.5,30.33,East,84,2.0,12.0,36,0.00,,---,0.00,VWS V14.01,2013-05-01 00:26:00,
2013-04-30 20:27:00,59.5,32.5,30.33,East,84,3.0,12.0,36,0.00,,---,0.00,VWS V14.01,2013-05-01 00:27:00,
2013-04-30 20:29:00,59.3,32.4,30.33,East,91,3.0,12.0,36,0.00,,---,0.00,VWS V14.01,2013-05-01 00:29:00,
2013-04-30 20:31:00,59.3,31.7,30.32,East,82,5.0,7.0,35,0.00,,---,0.00,VWS V14.01,2013-05-01 00:31:00,
2013-04-30 20:32:00,59.2,31.6,30.32,East,84,6.0,7.0,35,0.00,,---,0.00,VWS V14.01,2013-05-01 00:32:00,
2013-04-30 20:36:00,59.1,34.2,30.33,East,82,4.0,7.0,39,0.00,,---,0.00,VWS V14.01,2013-05-01 00:36:00,
2013-04-30 20:37:00,59.1,34.2,30.33,ENE,68,3.0,7.0,39,0.00,,---,0.00,VWS V14.01,2013-05-01 00:37:00,
2013-04-30 20:41:00,58.8,31.9,30.33,ENE,65,5.0,7.0,36,0.00,,---,0.00,VWS V14.01,2013-05-01 00:41:00,
2013-04-30 20:42:00,58.7,33.8,30.33,East,94,3.0,7.0,39,0.00,,---,0.00,VWS V14.01,2013-05-01 00:42:00,
2013-04-30 20:43:00,58.7,32.5,30.33,East,79,4.0,7.0,37,0.00,,---,0.00,VWS V14.01,2013-05-01 00:43:00,
2013-04-30 20:47:00,58.5,33.0,30.33,East,91,6.0,7.0,38,0.00,,---,0.00,VWS V14.01,2013-05-01 00:47:00,
2013-04-30 20:48:00,58.5,31.7,30.33,ENE,69,6.0,9.0,36,0.00,,---,0.00,VWS V14.01,2013-05-01 00:48:00,
2013-04-30 20:49:00,58.5,31.7,30.33,ENE,77,7.0,9.0,36,0.00,,---,0.00,VWS V14.01,2013-05-01 00:49:00,
2013-04-30 20:50:00,58.5,31.0,30.34,East,84,5.0,9.0,35,0.00,,---,0.00,VWS V14.01,2013-05-01 00:50:00,
2013-04-30 20:52:00,58.5,31.7,30.34,ESE,113,3.0,9.0,36,0.00,,---,0.00,VWS V14.01,2013-05-01 00:52:00,
2013-04-30 20:54:00,58.4,32.2,30.34,East,88,3.0,9.0,37,0.00,,---,0.00,VWS V14.01,2013-05-01 00:54:00,
2013-04-30 20:55:00,58.4,32.2,30.34,East,98,5.0,9.0,37,0.00,,---,0.00,VWS V14.01,2013-05-01 00:55:00,
2013-04-30 20:56:00,58.4,31.6,30.34,SE,145,7.0,9.0,36,0.00,,---,0.00,VWS V14.01,2013-05-01 00:56:00,
2013-04-30 20:59:00,58.3,30.8,30.34,ESE,111,7.0,10.0,35,0.00,,---,0.00,VWS V14.01,2013-05-01 00:59:00,
2013-04-30 21:00:00,58.3,30.8,30.34,ESE,114,4.0,10.0,35,0.00,,---,0.00,VWS V14.01,2013-05-01 01:00:00,
2013-04-30 21:01:00,58.3,30.8,30.34,ESE,105,3.0,4.0,35,0.00,,---,0.00,VWS V14.01,2013-05-01 01:01:00,
2013-04-30 21:03:00,58.2,30.7,30.34,ESE,111,5.0,7.0,35,0.00,,---,0.00,VWS V14.01,2013-05-01 01:03:00,
2013-04-30 21:04:00,58.2,31.4,30.34,East,83,8.0,9.0,36,0.00,,---,0.00,VWS V14.01,2013-05-01 01:04:00,
2013-04-30 21:05:00,58.2,30.0,30.34,East,97,4.0,9.0,34,0.00,,---,0.00,VWS V14.01,2013-05-01 01:05:00,
2013-04-30 21:06:00,58.2,30.7,30.34,ENE,72,4.0,9.0,35,0.00,,---,0.00,VWS V14.01,2013-05-01 01:06:00,
2013-04-30 21:08:00,58.1,31.3,30.34,East,100,4.0,9.0,36,0.00,,---,0.00,VWS V14.01,2013-05-01 01:08:00,
2013-04-30 21:09:00,58.1,29.9,30.34,East,82,3.0,9.0,34,0.00,,---,0.00,VWS V14.01,2013-05-01 01:09:00,
2013-04-30 21:10:00,58.1,32.0,30.34,ENE,75,3.0,9.0,37,0.00,,---,0.00,VWS V14.01,2013-05-01 01:10:00,
2013-04-30 21:12:00,58.0,30.5,30.34,East,79,5.0,9.0,35,0.00,,---,0.00,VWS V14.01,2013-05-01 01:12:00,
2013-04-30 21:14:00,58.0,31.2,30.34,East,81,3.0,9.0,36,0.00,,---,0.00,VWS V14.01,2013-05-01 01:14:00,
2013-04-30 21:16:00,57.9,31.1,30.34,ENE,71,1.0,9.0,36,0.00,,---,0.00,VWS V14.01,2013-05-01 01:16:00,
2013-04-30 21:17:00,57.9,31.1,30.34,ENE,70,2.0,9.0,36,0.00,,---,0.00,VWS V14.01,2013-05-01 01:17:00,
2013-04-30 21:19:00,57.8,30.4,30.34,ESE,118,3.0,9.0,35,0.00,,---,0.00,VWS V14.01,2013-05-01 01:19:00,
2013-04-30 21:20:00,57.7,30.3,30.34,ENE,76,1.0,9.0,35,0.00,,---,0.00,VWS V14.01,2013-05-01 01:20:00,
2013-04-30 21:22:00,57.7,30.3,30.35,East,100,1.0,9.0,35,0.00,,---,0.00,VWS V14.01,2013-05-01 01:22:00,
2013-04-30 21:24:00,57.7,31.0,30.35,East,100,0.0,9.0,36,0.00,,---,0.00,VWS V14.01,2013-05-01 01:24:00,
2013-04-30 21:25:00,57.5,31.5,30.35,ENE,70,1.0,9.0,37,0.00,,---,0.00,VWS V14.01,2013-05-01 01:25:00,
2013-04-30 21:26:00,57.5,31.5,30.35,ENE,68,1.0,9.0,37,0.00,,---,0.00,VWS V14.01,2013-05-01 01:26:00,
2013-04-30 21:28:00,57.4,32.7,30.35,East,84,1.0,9.0,39,0.00,,---,0.00,VWS V14.01,2013-05-01 01:28:00,
2013-04-30 21:29:00,57.4,32.7,30.35,ENE,68,3.0,9.0,39,0.00,,---,0.00,VWS V14.01,2013-05-01 01:29:00,
2013-04-30 21:31:00,57.2,31.8,30.35,East,90,2.0,5.0,38,0.00,,---,0.00,VWS V14.01,2013-05-01 01:31:00,
2013-04-30 21:32:00,57.2,33.1,30.34,East,96,0.0,5.0,40,0.00,,---,0.00,VWS V14.01,2013-05-01 01:32:00,
2013-04-30 21:33:00,57.2,31.8,30.34,ENE,62,2.0,5.0,38,0.00,,---,0.00,VWS V14.01,2013-05-01 01:33:00,
2013-04-30 21:34:00,57.1,31.1,30.34,East,81,3.0,5.0,37,0.00,,---,0.00,VWS V14.01,2013-05-01 01:34:00,
2013-04-30 21:35:00,57.1,29.7,30.34,East,83,1.0,5.0,35,0.00,,---,0.00,VWS V14.01,2013-05-01 01:35:00,
2013-04-30 21:37:00,57.0,29.6,30.34,ENE,67,2.0,5.0,35,0.00,,---,0.00,VWS V14.01,2013-05-01 01:37:00,
2013-04-30 21:38:00,57.0,30.3,30.34,NE,56,3.0,5.0,36,0.00,,---,0.00,VWS V14.01,2013-05-01 01:38:00,
2013-04-30 21:39:00,56.9,30.2,30.34,ENE,69,2.0,5.0,36,0.00,,---,0.00,VWS V14.01,2013-05-01 01:39:00,
2013-04-30 21:40:00,56.9,30.2,30.34,ENE,67,1.0,5.0,36,0.00,,---,0.00,VWS V14.01,2013-05-01 01:40:00,
2013-04-30 21:41:00,56.8,30.1,30.34,ENE,58,2.0,5.0,36,0.00,,---,0.00,VWS V14.01,2013-05-01 01:41:00,
2013-04-30 21:42:00,56.7,29.4,30.35,ENE,65,1.0,5.0,35,0.00,,---,0.00,VWS V14.01,2013-05-01 01:42:00,
2013-04-30 21:44:00,56.7,30.1,30.34,ENE,70,2.0,5.0,36,0.00,,---,0.00,VWS V14.01,2013-05-01 01:44:00,
2013-04-30 21:46:00,56.5,30.6,30.35,East,83,2.0,5.0,37,0.00,,---,0.00,VWS V14.01,2013-05-01 01:46:00,
2013-04-30 21:47:00,56.5,29.9,30.35,East,83,1.0,5.0,36,0.00,,---,0.00,VWS V14.01,2013-05-01 01:47:00,
2013-04-30 21:48:00,56.5,30.6,30.35,East,91,2.0,5.0,37,0.00,,---,0.00,VWS V14.01,2013-05-01 01:48:00,
2013-04-30 21:49:00,56.4,31.1,30.35,East,82,2.0,5.0,38,0.00,,---,0.00,VWS V14.01,2013-05-01 01:49:00,
2013-04-30 21:50:00,56.4,31.1,30.35,ENE,75,2.0,5.0,38,0.00,,---,0.00,VWS V14.01,2013-05-01 01:50:00,
2013-04-30 21:51:00,56.3,30.4,30.35,ENE,76,2.0,5.0,37,0.00,,---,0.00,VWS V14.01,2013-05-01 01:51:00,
2013-04-30 21:53:00,56.3,31.7,30.35,East,89,4.0,5.0,39,0.00,,---,0.00,VWS V14.01,2013-05-01 01:53:00,
2013-04-30 21:55:00,56.3,30.4,30.35,ENE,75,4.0,5.0,37,0.00,,---,0.00,VWS V14.01,2013-05-01 01:55:00,
2013-04-30 21:56:00,56.3,31.7,30.35,ENE,75,4.0,5.0,39,0.00,,---,0.00,VWS V14.01,2013-05-01 01:56:00,
2013-04-30 21:58:00,56.3,30.4,30.35,ENE,74,4.0,5.0,37,0.00,,---,0.00,VWS V14.01,2013-05-01 01:58:00,
2013-04-30 22:00:00,56.2,32.2,30.35,East,81,3.0,3.0,40,0.00,,---,0.00,VWS V14.01,2013-05-01 02:00:00,
2013-04-30 22:02:00,56.1,30.9,30.35,ENE,64,2.0,3.0,38,0.00,,---,0.00,VWS V14.01,2013-05-01 02:02:00,
2013-04-30 22:04:00,56.0,30.8,30.35,ENE,65,2.0,3.0,38,0.00,,---,0.00,VWS V14.01,2013-05-01 02:04:00,
2013-04-30 22:05:00,56.0,30.1,30.35,ENE,75,0.0,3.0,37,0.00,,---,0.00,VWS V14.01,2013-05-01 02:05:00,
2013-04-30 22:06:00,55.9,30.0,30.35,NNW,328,0.0,3.0,37,0.00,,---,0.00,VWS V14.01,2013-05-01 02:06:00,
2013-04-30 22:08:00,55.8,30.6,30.35,ENE,62,3.0,3.0,38,0.00,,---,0.00,VWS V14.01,2013-05-01 02:08:00,
2013-04-30 22:09:00,55.7,30.5,30.35,ENE,59,4.0,4.0,38,0.00,,---,0.00,VWS V14.01,2013-05-01 02:09:00,
2013-04-30 22:11:00,55.7,29.9,30.35,ENE,70,4.0,4.0,37,0.00,,---,0.00,VWS V14.01,2013-05-01 02:11:00,
2013-04-30 22:12:00,55.8,32.5,30.35,East,87,3.0,4.0,41,0.00,,---,0.00,VWS V14.01,2013-05-01 02:12:00,
2013-04-30 22:14:00,55.7,31.8,30.35,NE,44,1.0,4.0,40,0.00,,---,0.00,VWS V14.01,2013-05-01 02:14:00,
2013-04-30 22:16:00,55.6,32.3,30.35,NE,41,0.0,4.0,41,0.00,,---,0.00,VWS V14.01,2013-05-01 02:16:00,
2013-04-30 22:17:00,55.5,32.8,30.35,North,11,2.0,4.0,42,0.00,,---,0.00,VWS V14.01,2013-05-01 02:17:00,
2013-04-30 22:20:00,55.1,32.4,30.35,North,356,2.0,4.0,42,0.00,,---,0.00,VWS V14.01,2013-05-01 02:20:00,
2013-04-30 22:21:00,54.9,31.7,30.36,North,1,2.0,4.0,41,0.00,,---,0.00,VWS V14.01,2013-05-01 02:21:00,
2013-04-30 22:22:00,54.7,30.9,30.35,North,352,2.0,4.0,40,0.00,,---,0.00,VWS V14.01,2013-05-01 02:22:00,
2013-04-30 22:25:00,54.5,31.9,30.36,North,352,1.0,4.0,42,0.00,,---,0.00,VWS V14.01,2013-05-01 02:25:00,
2013-04-30 22:26:00,54.3,31.7,30.36,North,352,1.0,4.0,42,0.00,,---,0.00,VWS V14.01,2013-05-01 02:26:00,
2013-04-30 22:27:00,54.3,31.7,30.36,North,350,1.0,4.0,42,0.00,,---,0.00,VWS V14.01,2013-05-01 02:27:00,
2013-04-30 22:28:00,54.1,30.9,30.36,North,352,1.0,4.0,41,0.00,,---,0.00,VWS V14.01,2013-05-01 02:28:00,
2013-04-30 22:29:00,54.1,30.9,30.36,North,352,1.0,4.0,41,0.00,,---,0.00,VWS V14.01,2013-05-01 02:29:00,
2013-04-30 22:31:00,53.9,31.4,30.36,North,351,0.0,1.0,42,0.00,,---,0.00,VWS V14.01,2013-05-01 02:31:00,
2013-04-30 22:32:00,53.8,30.7,30.36,North,352,0.0,1.0,41,0.00,,---,0.00,VWS V14.01,2013-05-01 02:32:00,
2013-04-30 22:33:00,53.7,31.2,30.36,North,352,0.0,1.0,42,0.00,,---,0.00,VWS V14.01,2013-05-01 02:33:00,
2013-04-30 22:34:00,53.6,31.1,30.36,North,352,1.0,1.0,42,0.00,,---,0.00,VWS V14.01,2013-05-01 02:34:00,
2013-04-30 22:36:00,53.4,31.5,30.36,North,352,1.0,1.0,43,0.00,,---,0.00,VWS V14.01,2013-05-01 02:36:00,
2013-04-30 22:38:00,53.3,30.8,30.36,North,352,0.0,1.0,42,0.00,,---,0.00,VWS V14.01,2013-05-01 02:38:00,
2013-04-30 22:39:00,53.2,31.3,30.36,North,352,0.0,1.0,43,0.00,,---,0.00,VWS V14.01,2013-05-01 02:39:00,
2013-04-30 22:41:00,53.0,32.8,30.36,North,349,1.0,1.0,46,0.00,,---,0.00,VWS V14.01,2013-05-01 02:41:00,
2013-04-30 22:42:00,52.9,34.8,30.36,North,350,0.0,1.0,50,0.00,,---,0.00,VWS V14.01,2013-05-01 02:42:00,
2013-04-30 22:43:00,52.7,33.0,30.36,North,350,0.0,1.0,47,0.00,,---,0.00,VWS V14.01,2013-05-01 02:43:00,
2013-04-30 22:44:00,52.6,33.5,30.36,North,349,0.0,1.0,48,0.00,,---,0.00,VWS V14.01,2013-05-01 02:44:00,
2013-04-30 22:45:00,52.6,33.5,30.36,North,350,0.0,1.0,48,0.00,,---,0.00,VWS V14.01,2013-05-01 02:45:00,
2013-04-30 22:46:00,52.5,32.9,30.36,North,350,1.0,1.0,47,0.00,,---,0.00,VWS V14.01,2013-05-01 02:46:00,
2013-04-30 22:48:00,52.2,32.6,30.36,North,352,1.0,1.0,47,0.00,,---,0.00,VWS V14.01,2013-05-01 02:48:00,
2013-04-30 22:49:00,52.2,32.6,30.36,North,352,1.0,1.0,47,0.00,,---,0.00,VWS V14.01,2013-05-01 02:49:00,
2013-04-30 22:50:00,52.1,34.0,30.37,NNE,12,0.0,2.0,50,0.00,,---,0.00,VWS V14.01,2013-05-01 02:50:00,
2013-04-30 22:51:00,52.0,34.0,30.37,WNW,284,3.0,3.0,50,0.00,,---,0.00,VWS V14.01,2013-05-01 02:51:00,
2013-04-30 22:55:00,51.6,33.1,30.36,NW,311,0.0,3.0,49,0.00,,---,0.00,VWS V14.01,2013-05-01 02:55:00,
2013-04-30 22:56:00,51.5,33.5,30.37,NW,311,0.0,3.0,50,0.00,,---,0.00,VWS V14.01,2013-05-01 02:56:00,
2013-04-30 22:57:00,51.4,33.9,30.37,NW,311,0.0,3.0,51,0.00,,---,0.00,VWS V14.01,2013-05-01 02:57:00,
2013-04-30 23:00:00,51.4,33.4,30.37,North,354,2.0,2.0,50,0.00,,---,0.00,VWS V14.01,2013-05-01 03:00:00,
2013-04-30 23:01:00,51.4,33.4,30.37,North,355,2.0,2.0,50,0.00,,---,0.00,VWS V14.01,2013-05-01 03:01:00,
2013-04-30 23:02:00,51.4,32.9,30.37,North,356,2.0,2.0,49,0.00,,---,0.00,VWS V14.01,2013-05-01 03:02:00,
2013-04-30 23:05:00,51.4,32.9,30.37,North,354,2.0,2.0,49,0.00,,---,0.00,VWS V14.01,2013-05-01 03:05:00,
2013-04-30 23:07:00,51.4,32.9,30.37,North,354,1.0,2.0,49,0.00,,---,0.00,VWS V14.01,2013-05-01 03:07:00,
2013-04-30 23:08:00,51.4,32.9,30.37,North,355,1.0,2.0,49,0.00,,---,0.00,VWS V14.01,2013-05-01 03:08:00,
2013-04-30 23:10:00,51.2,32.7,30.37,North,356,2.0,2.0,49,0.00,,---,0.00,VWS V14.01,2013-05-01 03:10:00,
2013-04-30 23:11:00,51.1,32.6,30.37,North,355,2.0,2.0,49,0.00,,---,0.00,VWS V14.01,2013-05-01 03:11:00,
2013-04-30 23:13:00,50.8,31.3,30.37,North,359,3.0,3.0,47,0.00,,---,0.00,VWS V14.01,2013-05-01 03:13:00,
2013-04-30 23:16:00,50.6,31.1,30.37,North,352,0.0,3.0,47,0.00,,---,0.00,VWS V14.01,2013-05-01 03:16:00,
2013-04-30 23:18:00,50.5,31.6,30.37,North,352,1.0,3.0,48,0.00,,---,0.00,VWS V14.01,2013-05-01 03:18:00,
2013-04-30 23:19:00,50.5,31.6,30.37,NNE,18,1.0,3.0,48,0.00,,---,0.00,VWS V14.01,2013-05-01 03:19:00,
2013-04-30 23:21:00,50.5,31.6,30.37,NE,40,2.0,3.0,48,0.00,,---,0.00,VWS V14.01,2013-05-01 03:21:00,
2013-04-30 23:23:00,50.5,31.0,30.37,NE,54,1.0,3.0,47,0.00,,---,0.00,VWS V14.01,2013-05-01 03:23:00,
2013-04-30 23:25:00,50.4,32.0,30.37,NE,54,2.0,3.0,49,0.00,,---,0.00,VWS V14.01,2013-05-01 03:25:00,
2013-04-30 23:26:00,50.3,31.9,30.37,NE,50,2.0,3.0,49,0.00,,---,0.00,VWS V14.01,2013-05-01 03:26:00,
2013-04-30 23:27:00,50.2,30.8,30.37,NE,47,2.0,3.0,47,0.00,,---,0.00,VWS V14.01,2013-05-01 03:27:00,
2013-04-30 23:29:00,50.1,31.7,30.37,NE,46,2.0,3.0,49,0.00,,---,0.00,VWS V14.01,2013-05-01 03:29:00,
2013-04-30 23:30:00,50.0,33.1,30.37,NE,42,2.0,2.0,52,0.00,,---,0.00,VWS V14.01,2013-05-01 03:30:00,
2013-04-30 23:31:00,49.9,32.0,30.37,NNE,32,2.0,2.0,50,0.00,,---,0.00,VWS V14.01,2013-05-01 03:31:00,
2013-04-30 23:32:00,49.9,32.0,30.37,NNE,30,2.0,2.0,50,0.00,,---,0.00,VWS V14.01,2013-05-01 03:32:00,
2013-04-30 23:33:00,49.7,33.8,30.37,North,8,2.0,3.0,54,0.00,,---,0.00,VWS V14.01,2013-05-01 03:33:00,
2013-04-30 23:34:00,49.5,33.6,30.37,North,4,3.0,3.0,54,0.00,,---,0.00,VWS V14.01,2013-05-01 03:34:00,
2013-04-30 23:36:00,49.3,34.7,30.37,North,1,2.0,3.0,57,0.00,,---,0.00,VWS V14.01,2013-05-01 03:36:00,
2013-04-30 23:37:00,49.1,34.5,30.37,North,360,1.0,3.0,57,0.00,,---,0.00,VWS V14.01,2013-05-01 03:37:00,
2013-04-30 23:38:00,49.1,34.5,30.37,NNE,15,1.0,3.0,57,0.00,,---,0.00,VWS V14.01,2013-05-01 03:38:00,
2013-04-30 23:39:00,49.1,32.7,30.37,NNE,15,0.0,3.0,53,0.00,,---,0.00,VWS V14.01,2013-05-01 03:39:00,
2013-04-30 23:41:00,49.3,32.9,30.37,NNE,18,1.0,3.0,53,0.00,,---,0.00,VWS V14.01,2013-05-01 03:41:00,
2013-04-30 23:42:00,49.5,32.6,30.37,NE,50,1.0,3.0,52,0.00,,---,0.00,VWS V14.01,2013-05-01 03:42:00,
2013-04-30 23:43:00,49.6,32.7,30.37,NE,50,1.0,3.0,52,0.00,,---,0.00,VWS V14.01,2013-05-01 03:43:00,
2013-04-30 23:45:00,49.7,33.3,30.37,NE,50,2.0,3.0,53,0.00,,---,0.00,VWS V14.01,2013-05-01 03:45:00,
2013-04-30 23:46:00,49.9,31.5,30.37,NE,43,1.0,3.0,49,0.00,,---,0.00,VWS V14.01,2013-05-01 03:46:00,
2013-04-30 23:47:00,49.9,31.0,30.37,NE,34,2.0,3.0,48,0.00,,---,0.00,VWS V14.01,2013-05-01 03:47:00,
2013-04-30 23:49:00,50.0,31.1,30.37,ESE,106,2.0,3.0,48,0.00,,---,0.00,VWS V14.01,2013-05-01 03:49:00,
2013-04-30 23:51:00,50.2,31.8,30.37,ENE,60,1.0,3.0,49,0.00,,---,0.00,VWS V14.01,2013-05-01 03:51:00,
2013-04-30 23:52:00,50.2,32.3,30.37,ENE,60,1.0,3.0,50,0.00,,---,0.00,VWS V14.01,2013-05-01 03:52:00,
2013-04-30 23:53:00,50.2,34.2,30.37,North,359,1.0,3.0,54,0.00,,---,0.00,VWS V14.01,2013-05-01 03:53:00,
2013-04-30 23:54:00,50.0,34.9,30.38,North,360,1.0,3.0,56,0.00,,---,0.00,VWS V14.01,2013-05-01 03:54:00,
2013-04-30 23:55:00,49.9,34.8,30.37,North,360,1.0,3.0,56,0.00,,---,0.00,VWS V14.01,2013-05-01 03:55:00,
2013-04-30 23:56:00,49.7,33.8,30.37,North,360,1.0,3.0,54,0.00,,---,0.00,VWS V14.01,2013-05-01 03:56:00,
2013-04-30 23:58:00,49.6,34.1,30.38,North,359,1.0,3.0,55,0.00,,---,0.00,VWS V14.01,2013-05-01 03:58:00,